                ,  0.671,  0.819,  0.966,  1.114,  1.262,  1.410,  1.558,  1.705,  1.853,  2.001,  2.149,  2.297,  2.445,  2.592,  2.740,  2.888,  3.036,  3.184,  3.331,  3.479,  3.627,  3.775,  3.923,  4.070,  4.218,  4.366,  4.514,  4.662,  4.809,  4.957,  5.105,  5.253,  5.401,  5.549,  5.696,  5.844,  5.992,  6.140,  6.288,  6.435,  6.583,  6.731,  6.879,  7.027,  7.174,  7.322,  7.470,  7.618,  7.766,  7.914,  8.061,  8.209,  8.357,  8.505,  8.653,  8.800,  8.948,  9.096,  9.244,  9.392,  9.539,  9.687,  9.835
2005/03/31 00:00,  999.0,  999.0,  999.0,  999.0,  999.0,  999.0,  999.0,  999.0,  999.0,  999.0,  999.0,  999.0,  999.0,  999.0,  999.0,  999.0,  999.0,  999.0,  999.0,  999.0,  999.0,  999.0,  999.0,  999.0,  999.0,  999.0,  999.0,  999.0,  999.0,  999.0,  999.0,  999.0,  999.0,  999.0,  999.0,  999.0,  999.0,  999.0,  999.0,  999.0,  999.0,  999.0,  999.0,  999.0,  999.0,  999.0,  999.0,  999.0,  999.0,  999.0,  999.0,  999.0,  999.0,  999.0,  999.0,  999.0,  999.0,  999.0,  999.0,  999.0,  999.0,  999.0,  999.0
2005/03/31 00:10,  999.0,    0.1,    1.9,    2.5,    5.5,  999.0,   10.1,   10.5,   10.1,   10.3,   10.6,  999.0,  999.0,  999.0,  999.0,  999.0,  999.0,  999.0,  999.0,  999.0,  999.0,  999.0,  999.0,  999.0,  999.0,  999.0,  999.0,  999.0,  999.0,  999.0,  999.0,  999.0,  999.0,  999.0,  999.0,  999.0,  999.0,  999.0,  999.0,  999.0,  999.0,  999.0,  999.0,  999.0,  999.0,  999.0,  999.0,  999.0,  999.0,  999.0,  999.0,  999.0,  999.0,  999.0,  999.0,  999.0,  999.0,  999.0,  999.0,  999.0,  999.0,  999.0,  999.0
2005/03/31 00:20,  999.0,    1.4,    0.5,  999.0,  999.0,  999.0,  999.0,   10.7,   10.0,  999.0,  999.0,  999.0,  999.0,  999.0,  999.0,  999.0,  999.0,  999.0,  999.0,  999.0,  999.0,  999.0,  999.0,  999.0,  999.0,  999.0,  999.0,  999.0,  999.0,  999.0,  999.0,  999.0,  999.0,    0.7,  999.0,  999.0,  999.0,  999.0,  999.0,  999.0,  999.0,  999.0,  999.0,  999.0,  999.0,  999.0,  999.0,  999.0,  999.0,  999.0,  999.0,  999.0,  999.0,  999.0,  999.0,  999.0,  999.0,  999.0,  999.0,  999.0,  999.0,  999.0,  999.0
2005/03/31 00:30,  999.0,    0.9,    1.7,    2.3,    3.8,    8.2,   10.0,   10.0,    9.7,  999.0,  999.0,  999.0,  999.0,  999.0,  999.0,  999.0,  999.0,  999.0,  999.0,  999.0,  999.0,  999.0,  999.0,  999.0,  999.0,  999.0,  999.0,  999.0,  999.0,  999.0,  999.0,  999.0,   37.1,  999.0,  999.0,  999.0,  999.0,  999.0,  999.0,  999.0,  999.0,  999.0,  999.0,  999.0,  999.0,  999.0,  999.0,  999.0,  999.0,  999.0,  999.0,  999.0,  999.0,  999.0,  999.0,  999.0,  999.0,  999.0,  999.0,  999.0,  999.0,  999.0,  999.0
2005/03/31 00:40,  999.0,    0.6,    1.1,    2.8,    5.1,    8.3,   10.2,    9.7,  999.0,  999.0,  999.0,  999.0,  999.0,  999.0,  999.0,  999.0,    9.9,  999.0,  999.0,  999.0,  999.0,  999.0,  999.0,  999.0,  999.0,  999.0,  999.0,  999.0,  999.0,  999.0,  999.0,  999.0,  999.0,  999.0,  999.0,   11.1,  999.0,   11.4,   11.0,  999.0,   11.4,  999.0,   11.0,  999.0,  999.0,   10.7,   10.9,  999.0,  999.0,  999.0,   11.3,  999.0,   11.0,  999.0,  999.0,  999.0,  999.0,  999.0,  999.0,  999.0,  999.0,  999.0,  999.0
2005/03/31 00:50,  999.0,    0.2,    0.4,    0.5,    3.8,  999.0,    9.3,  999.0,  999.0,  999.0,  999.0,  999.0,  999.0,  999.0,   14.9,  999.0,   17.6,  999.0,  999.0,  999.0,  999.0,  999.0,  999.0,  999.0,  999.0,  999.0,   42.7,  999.0,   42.8,  999.0,   42.7,   37.5,   26.9,   48.1,  999.0,   11.2,   26.4,  999.0,   38.7,   35.8,   33.7,   32.4,   26.8,   45.1,   39.6,   44.2,   50.4,   53.9,   32.1,   39.8,  999.0,   53.9,   39.5,   54.0,   54.0,  999.0,  999.0,  999.0,  999.0,  999.0,  999.0,  999.0,  999.0
2005/03/31 01:00,  999.0,    0.7,    0.8,    1.8,    2.5,  999.0,    9.7,    8.4,  999.0,  999.0,  999.0,  999.0,  999.0,  999.0,  999.0,  999.0,   17.4,  999.0,  999.0,  999.0,  999.0,  999.0,  999.0,  999.0,  999.0,  999.0,  999.0,  999.0,  999.0,  999.0,  999.0,   43.1,  999.0,  999.0,   42.6,  999.0,   51.3,   50.6,  999.0,   52.0,   54.0,   53.9,   54.0,   26.9,   42.3,  999.0,  999.0,  999.0,  999.0,  999.0,  999.0,   27.0,  999.0,  999.0,  999.0,  999.0,   40.5,  999.0,   53.9,  999.0,  999.0,   40.4,  999.0
2005/03/31 01:10,  999.0,  999.0,   -2.8,    1.3,  999.0,    6.8,  999.0,  999.0,  999.0,  999.0,  999.0,  999.0,  999.0,  999.0,  999.0,  999.0,   17.9,  999.0,  999.0,  999.0,  999.0,  999.0,  999.0,  999.0,  999.0,  999.0,  999.0,  999.0,  999.0,  999.0,  999.0,   39.4,   47.0,  999.0,   48.8,  999.0,   27.0,  999.0,  999.0,   36.0,   36.0,   36.0,  999.0,   54.2,  999.0,  999.0,   54.0,   54.1,  999.0,   27.0,   44.9,  999.0,  999.0,   54.1,  999.0,   40.5,  999.0,   53.9,  999.0,  999.0,   53.9,  999.0,   54.0
2005/03/31 01:20,  999.0,    1.2,    1.4,    2.2,    3.1,    6.8,    8.8,    9.1,  999.0,  999.0,  999.0,  999.0,  999.0,   13.9,   15.3,   17.3,   18.1,  999.0,  999.0,  999.0,  999.0,  999.0,  999.0,  999.0,  999.0,  999.0,  999.0,  999.0,  999.0,   45.0,   53.8,   54.1,   54.2,  999.0,   50.5,   54.1,   54.1,   40.6,   54.1,   54.1,   36.0,   43.3,   54.0,   43.2,   54.2,   54.1,   54.1,   54.2,   40.7,   54.1,   36.0,   43.3,   36.1,   40.6,   40.7,   40.5,   54.0,   54.2,   36.2,   29.9,  999.0,  999.0,   54.2
2005/03/31 01:30,  999.0,    1.6,    2.7,    1.6,    3.6,  999.0,    8.6,  999.0,  999.0,  999.0,  999.0,  999.0,  999.0,  999.0,  999.0,  999.0,  999.0,  999.0,  999.0,  999.0,  999.0,  999.0,  999.0,  999.0,  999.0,  999.0,   25.2,   54.3,  999.0,   25.6,  999.0,   40.2,   32.4,   40.8,   28.9,   36.3,   27.1,   27.1,   20.3,   20.4,   36.1,   27.1,   40.6,  999.0,   36.1,   54.1,   54.2,   54.1,   41.5,   13.6,   45.2,   45.1,   36.2,   36.2,   36.3,   40.5,   47.5,  999.0,   48.4,   45.2,  999.0,   40.6,  999.0
2005/03/31 01:40,  999.0,    0.1,    2.2,    2.6,    3.6,    7.1,    8.8,    8.9,  999.0,  999.0,  999.0,  999.0,  999.0,  999.0,  999.0,  999.0,  999.0,  999.0,  999.0,  999.0,  999.0,  999.0,  999.0,  999.0,  999.0,  999.0,  999.0,  999.0,    3.9,    5.9,    4.0,    2.8,    3.8,   13.1,    8.9,  999.0,   20.4,  999.0,   27.2,   36.1,   36.3,   32.6,   54.2,   40.7,   32.6,   27.1,   40.8,  999.0,   40.6,   36.1,   32.5,   27.2,   36.1,   36.2,   27.3,  999.0,  999.0,   36.0,   24.5,  999.0,  999.0,   27.1,   48.9
2005/03/31 01:50,  999.0,  999.0,    1.8,    2.6,    3.8,  999.0,    2.4,    8.2,  999.0,  999.0,  999.0,  999.0,  999.0,  999.0,  999.0,  999.0,  999.0,  999.0,  999.0,  999.0,  999.0,  999.0,  999.0,  999.0,  999.0,  999.0,  999.0,  999.0,  999.0,  999.0,  999.0,  999.0,  999.0,  999.0,    0.0,  999.0,   -0.1,  999.0,  999.0,  999.0,   13.6,   -0.1,  999.0,   13.7,  999.0,    2.7,   16.5,  999.0,   -0.0,  999.0,   27.1,  999.0,  999.0,  999.0,  999.0,  999.0,  999.0,  999.0,  999.0,  999.0,  999.0,  999.0,  999.0
2005/03/31 02:00,  999.0,  999.0,    2.9,    2.7,    2.8,    8.2,    7.4,  999.0,  999.0,  999.0,  999.0,   12.1,  999.0,  999.0,  999.0,  999.0,   18.1,   19.2,  999.0,  999.0,  999.0,  999.0,  999.0,  999.0,  999.0,  999.0,  999.0,   54.2,  999.0,   51.5,  999.0,   29.3,  999.0,  999.0,   18.5,  999.0,   32.2,   45.6,   39.4,   40.7,   37.7,   24.2,  999.0,   44.7,   40.8,   44.5,   45.2,  999.0,   45.0,   40.5,   45.3,   27.1,  999.0,   45.3,   54.0,   45.0,   54.1,   40.6,   35.9,  999.0,   45.1,   27.2,  999.0
2005/03/31 02:10,  999.0,    0.7,    1.7,    3.6,    3.0,    7.3,  999.0,    5.8,  999.0,  999.0,  999.0,  999.0,  999.0,  999.0,  999.0,  999.0,  999.0,  999.0,  999.0,  999.0,  999.0,  999.0,  999.0,  999.0,  999.0,  999.0,  999.0,   16.3,  999.0,  999.0,  999.0,  999.0,  999.0,   32.5,  999.0,   43.4,  999.0,   27.2,  999.0,   27.1,    0.0,  999.0,   27.3,  -13.5,  999.0,   27.1,   17.9,   36.3,   54.0,  999.0,   45.4,   40.6,   54.5,   27.3,   36.2,   54.4,   36.3,   36.2,  999.0,  999.0,   45.3,   41.0,   54.6
2005/03/31 02:20,  999.0,    0.5,    1.6,    2.8,    4.0,    5.2,    4.7,    5.9,  999.0,  999.0,    8.2,   12.4,  999.0,  999.0,  999.0,  999.0,  999.0,  999.0,  999.0,  999.0,  999.0,  999.0,  999.0,  999.0,  999.0,  999.0,  999.0,   54.3,  999.0,  999.0,  999.0,   54.2,  999.0,   45.3,  999.0,  999.0,  999.0,   36.3,   14.3,   18.0,   22.0,   27.1,   54.0,   21.6,    0.1,   19.0,   -3.9,   20.0,   40.7,   -0.2,  999.0,  999.0,   54.2,  999.0,  999.0,   27.0,  999.0,   26.8,  999.0,   27.1,  999.0,  999.0,   21.6
2005/03/31 02:30,  999.0,    1.3,    2.7,    2.9,    4.5,    5.9,    5.8,    7.6,    6.0,  999.0,  999.0,   14.9,  999.0,  999.0,  999.0,  999.0,  999.0,  999.0,  999.0,  999.0,  999.0,  999.0,  999.0,  999.0,  999.0,   45.2,  999.0,   27.1,   35.6,   26.9,   28.9,   33.9,   36.0,   45.2,   27.5,   24.0,   22.9,   45.1,   34.8,   27.2,   33.9,   18.2,   27.1,   27.2,   13.6,   27.2,   20.0,  999.0,   20.4,   47.4,   36.2,   27.1,   40.5,  999.0,   40.5,   54.0,   33.7,   54.1,   54.2,  999.0,  999.0,   54.0,  999.0
2005/03/31 02:40,  999.0,    0.6,    2.9,    2.6,    4.2,    7.3,    7.0,    7.4,  999.0,  999.0,   12.1,  999.0,  999.0,  999.0,  999.0,  999.0,  999.0,  999.0,  999.0,  999.0,  999.0,  999.0,  999.0,  999.0,  999.0,  999.0,   27.0,    0.0,    0.4,  999.0,    8.9,   -0.0,   13.5,    0.0,    9.4,   27.5,   13.5,    9.1,    0.2,    6.8,    6.9,    0.1,   18.3,   -0.0,   -0.0,  999.0,   13.5,   13.8,  999.0,   18.2,   27.0,   -0.1,    0.1,    0.1,   13.6,  999.0,   13.6,    2.8,    2.0,   17.4,  999.0,   13.5,  999.0
2005/03/31 02:50,  999.0,   -0.7,    2.9,    2.7,    5.1,    6.1,    6.3,    6.2,  999.0,  999.0,  999.0,  999.0,  999.0,  999.0,  999.0,  999.0,  999.0,  999.0,  999.0,  999.0,  999.0,  999.0,  999.0,  999.0,  999.0,  999.0,  999.0,  999.0,  999.0,  999.0,  999.0,  999.0,    3.8,  999.0,   13.9,    2.8,    0.1,  -36.0,  -18.3,    6.8,  999.0,  999.0,  -10.9,  -38.1,    5.0,    4.0,   -6.8,  999.0,   -0.1,   -7.8,  999.0,  999.0,   27.4,  -25.2,  999.0,  999.0,   17.5,  999.0,  999.0,   24.3,   40.8,  999.0,  999.0
2005/03/31 03:00,  999.0,   -0.1,    3.4,    3.4,    5.0,    6.0,    7.0,    7.3,  999.0,  999.0,  999.0,  999.0,  999.0,  999.0,  999.0,  999.0,  999.0,  999.0,  999.0,  999.0,  999.0,  999.0,  999.0,  999.0,  999.0,  999.0,  999.0,  999.0,  999.0,  999.0,  999.0,  999.0,   13.5,  999.0,  999.0,   21.8,  999.0,   41.7,  999.0,   36.0,  999.0,   38.1,   33.9,  999.0,   13.7,   27.1,   27.1,   27.2,  999.0,   17.9,   40.5,   27.2,   54.4,   27.2,  999.0,   54.0,    9.1,  999.0,   27.3,   54.3,  999.0,  999.0,  999.0
2005/03/31 03:10,  999.0,   -0.5,    2.8,    3.2,    3.6,    5.8,    6.8,  999.0,  999.0,  999.0,  999.0,  999.0,  999.0,  999.0,  999.0,  999.0,   19.5,  999.0,  999.0,  999.0,  999.0,  999.0,  999.0,  999.0,  999.0,  999.0,  999.0,  999.0,  999.0,  999.0,  999.0,  999.0,   17.3,   10.5,   18.0,   10.8,    7.3,  999.0,  999.0,   10.7,    0.1,   -0.1,   -0.2,   27.1,    0.1,    0.3,   18.1,  999.0,  999.0,   15.4,   18.0,   18.4,   24.4,   20.4,   13.9,  999.0,   31.3,  999.0,  999.0,  999.0,   26.8,  999.0,  999.0
2005/03/31 03:20,  999.0,    0.6,    3.5,    2.5,    1.3,    5.2,    4.6,  999.0,  999.0,  999.0,  999.0,  999.0,  999.0,  999.0,  999.0,  999.0,  999.0,  999.0,  999.0,  999.0,  999.0,  999.0,  999.0,  999.0,  999.0,  999.0,  999.0,  999.0,  999.0,  999.0,  999.0,   16.2,  999.0,   27.2,  999.0,   -0.1,   -0.1,    0.2,    0.1,   -0.1,    0.0,   -0.0,  999.0,   -0.1,  999.0,  999.0,    0.1,   -0.1,  999.0,  999.0,   -2.4,  999.0,  999.0,   -2.7,  -11.3,  999.0,  -18.7,  -15.6,  -13.2,  999.0,  999.0,  999.0,  999.0
2005/03/31 03:30,  999.0,    0.2,    3.1,    3.5,    3.8,    6.5,    6.3,  999.0,  999.0,  999.0,  999.0,  999.0,  999.0,  999.0,  999.0,  999.0,  999.0,  999.0,  999.0,  999.0,  999.0,  999.0,  999.0,  999.0,  999.0,  999.0,  999.0,  999.0,  999.0,  999.0,  999.0,  999.0,   21.8,  999.0,  999.0,   38.0,   35.2,   24.9,  999.0,   39.9,   30.6,  999.0,   21.9,   28.3,  999.0,  999.0,   35.3,  999.0,  999.0,  999.0,   50.9,  999.0,  999.0,  999.0,  999.0,  999.0,   54.0,  999.0,  999.0,  999.0,  999.0,  999.0,  999.0
2005/03/31 03:40,  999.0,    0.9,    2.8,    2.7,    3.4,  999.0,    6.1,    7.8,  999.0,  999.0,  999.0,   14.0,  999.0,  999.0,  999.0,  999.0,   20.2,  999.0,  999.0,  999.0,  999.0,  999.0,  999.0,  999.0,  999.0,  999.0,  999.0,  999.0,  999.0,  999.0,  999.0,  999.0,  999.0,  999.0,  999.0,   46.2,   52.2,  999.0,   46.4,   51.3,  999.0,  999.0,   51.5,   45.7,   54.1,  999.0,   54.1,  999.0,  999.0,   52.9,   52.4,  999.0,  999.0,   54.0,   54.1,   51.4,   54.3,   54.2,  999.0,  999.0,   54.2,   54.1,  999.0
2005/03/31 03:50,  999.0,    0.4,    2.1,    1.9,    3.4,    4.6,    7.4,  999.0,  999.0,  999.0,   13.0,   14.0,  999.0,  999.0,  999.0,   19.7,   20.5,  999.0,  999.0,  999.0,  999.0,  999.0,  999.0,  999.0,  999.0,   51.7,   53.0,  999.0,  999.0,   53.1,   51.6,   54.2,   54.1,   54.0,   54.1,   54.1,   54.2,   54.1,   54.2,   54.3,   53.0,   54.3,   50.3,   54.1,   53.8,   52.7,   53.0,   54.1,   52.6,   54.1,   54.1,   52.2,   52.9,   54.1,   53.1,  999.0,  999.0,   53.0,   54.3,  999.0,   54.2,   54.3,  999.0
2005/03/31 04:00,  999.0,    0.6,    1.9,    1.8,    2.9,    5.0,    7.7,  999.0,  999.0,  999.0,   12.7,   13.0,  999.0,  999.0,  999.0,   20.3,   21.5,  999.0,  999.0,  999.0,  999.0,  999.0,  999.0,  999.0,  999.0,  999.0,   54.3,  999.0,  999.0,   54.2,  999.0,   54.5,   54.2,  999.0,   53.9,  999.0,   54.3,  999.0,   54.3,   54.3,   54.0,   54.2,   54.5,   54.2,  999.0,   54.1,   54.6,  999.0,   54.2,  999.0,   54.3,  999.0,   54.4,   54.2,  999.0,  999.0,   54.3,   54.6,  999.0,  999.0,   54.7,  999.0,  999.0
2005/03/31 04:10,  999.0,    0.7,    1.6,    0.9,    5.1,    7.2,    7.6,  999.0,  999.0,   12.3,   12.4,   13.4,   14.2,  999.0,  999.0,   19.9,   21.9,  999.0,  999.0,  999.0,  999.0,  999.0,  999.0,  999.0,  999.0,  999.0,  999.0,  999.0,  999.0,  999.0,  999.0,  999.0,  999.0,  999.0,  999.0,  999.0,   54.7,  999.0,   54.3,   54.4,   54.2,   50.4,   54.7,   52.9,  999.0,   54.2,   54.4,   54.4,   54.1,   54.4,   54.3,  999.0,   54.4,   54.4,  999.0,   54.1,   54.3,   54.0,  999.0,   54.3,   54.2,  999.0,   54.4
2005/03/31 04:20,  999.0,    1.5,    0.9,    1.8,    6.3,    7.9,  999.0,  999.0,   11.2,   11.9,   12.0,   12.8,   13.9,  999.0,  999.0,   20.3,  999.0,  999.0,  999.0,  999.0,  999.0,  999.0,  999.0,  999.0,  999.0,  999.0,  999.0,  999.0,  999.0,  999.0,  999.0,  999.0,  999.0,  999.0,  999.0,  999.0,  999.0,  999.0,  999.0,   54.2,   54.2,  999.0,   54.1,   54.1,  999.0,   54.3,   54.2,   54.4,   54.2,   54.3,   54.2,  999.0,   54.2,   54.1,   54.5,   54.2,   54.2,   54.1,  999.0,   54.4,   54.3,   54.1,  999.0
2005/03/31 04:30,  999.0,    1.5,    0.9,    2.0,  999.0,    8.1,    5.9,  999.0,   10.0,   11.3,   11.6,   12.8,  999.0,  999.0,  999.0,  999.0,  999.0,  999.0,  999.0,  999.0,  999.0,  999.0,  999.0,  999.0,  999.0,  999.0,  999.0,  999.0,   -8.0,   -5.6,  999.0,  999.0,  999.0,  999.0,  999.0,  999.0,   -0.3,  999.0,    0.2,    6.8,  999.0,   -0.1,    9.0,   18.1,   -0.3,   26.9,    6.8,   27.1,  999.0,  999.0,   18.1,  999.0,  999.0,   27.1,  999.0,  999.0,   17.8,  999.0,  999.0,   -0.0,   13.5,  999.0,   27.0
2005/03/31 04:40,  999.0,    1.4,  999.0,  999.0,  999.0,  999.0,  999.0,   10.2,   10.3,   10.7,   11.0,   12.0,   13.3,  999.0,  999.0,   18.6,  999.0,  999.0,  999.0,  999.0,  999.0,  999.0,  999.0,  999.0,  999.0,  999.0,  999.0,  999.0,  999.0,  999.0,  999.0,  999.0,  999.0,  999.0,  999.0,  999.0,   26.8,  999.0,  999.0,   27.1,  999.0,  999.0,   26.9,   13.4,   13.7,   36.0,   13.5,  999.0,  999.0,   27.1,   27.0,   27.0,   27.0,   36.2,  999.0,   27.1,   33.8,  999.0,  999.0,  999.0,  999.0,  999.0,  999.0
2005/03/31 04:50,  999.0,    1.5,    0.3,    1.6,    5.2,    7.9,    9.9,   10.6,   11.6,   11.1,   10.7,   11.9,   13.4,  999.0,  999.0,   21.3,   22.7,  999.0,  999.0,  999.0,  999.0,  999.0,  999.0,  999.0,  999.0,  999.0,  999.0,   53.9,   54.3,  999.0,  999.0,   54.0,   54.1,  999.0,   54.0,   54.1,   54.3,   54.1,   54.1,   54.2,  999.0,   54.2,   54.0,   54.1,   54.1,   54.0,  999.0,   54.5,   54.0,   54.2,   54.2,   54.1,   54.2,  999.0,   53.9,  999.0,  999.0,  999.0,   54.1,  999.0,  999.0,  999.0,   54.2
2005/03/31 05:00,  999.0,    1.6,    0.2,    1.0,    3.6,    8.1,   10.3,   11.2,   11.9,   11.5,   10.6,   12.0,   13.2,  999.0,  999.0,   20.7,   22.1,  999.0,  999.0,  999.0,  999.0,  999.0,  999.0,  999.0,  999.0,   54.3,  999.0,  999.0,  999.0,  999.0,   54.3,   54.2,   54.3,  999.0,  999.0,   54.3,  999.0,   54.1,   54.3,   54.3,   54.1,   54.4,   54.4,   54.2,  999.0,   54.2,   54.7,   54.4,   54.3,   54.4,   54.5,   54.2,   54.4,   54.2,   54.3,   54.3,   54.3,   54.5,   54.3,   54.2,  999.0,   54.2,   54.2
2005/03/31 05:10,  999.0,    1.2,    0.1,    1.3,    3.1,  999.0,   10.7,   12.0,   11.5,   11.6,   10.3,   12.1,   14.3,  999.0,  999.0,   20.7,  999.0,  999.0,  999.0,  999.0,  999.0,  999.0,  999.0,  999.0,  999.0,   54.5,  999.0,   54.2,   54.0,   54.4,  999.0,   54.1,   54.1,  999.0,   54.2,   54.3,   54.2,   54.4,   54.2,   54.2,   54.1,   54.1,   54.1,   54.0,   54.1,   54.1,   54.1,   54.4,   54.2,   54.1,  999.0,   54.3,   54.2,   54.4,   54.4,   54.2,   54.3,   54.2,   54.1,   54.2,   54.1,   54.4,   54.0
2005/03/31 05:20,  999.0,    1.3,    0.2,    1.2,    5.1,    8.3,   10.3,   11.3,   11.8,   11.1,   10.2,   11.6,   13.7,  999.0,  999.0,   19.9,   21.7,  999.0,  999.0,  999.0,  999.0,  999.0,  999.0,  999.0,  999.0,  999.0,  999.0,   54.1,   54.4,   55.2,   54.2,   54.3,   54.2,   54.1,   54.2,   54.2,   54.2,   54.2,   54.2,   54.3,   54.6,   53.9,   54.1,  999.0,   54.2,   54.2,   54.2,   54.2,   54.2,   54.3,   54.2,   54.1,   54.1,   54.3,   54.3,   54.1,   54.3,  999.0,   54.2,   54.3,  999.0,   54.0,   54.2
2005/03/31 05:30,  999.0,    0.8,   -0.1,    2.1,    6.9,    8.9,   10.3,   11.4,   11.5,   10.1,   10.2,   11.8,   13.9,   15.4,  999.0,   20.1,   22.0,  999.0,  999.0,  999.0,  999.0,  999.0,  999.0,  999.0,  999.0,   55.0,   54.8,   54.6,   54.9,   54.9,   54.8,   54.8,   54.5,   54.7,   54.5,   54.6,   54.6,   54.3,   54.4,  999.0,   54.4,   54.3,   54.3,   54.2,   54.3,   54.4,   54.5,   54.3,   54.3,   54.5,   54.5,   54.3,   54.4,   54.5,   54.3,   54.3,   54.2,   54.4,   54.3,   54.2,   54.1,   54.1,  999.0
2005/03/31 05:40,  999.0,    0.4,    4.4,    6.7,    8.8,    9.8,   10.7,   11.2,   10.9,   10.1,   10.0,   11.5,   13.7,  999.0,   18.8,   20.5,   21.9,  999.0,  999.0,  999.0,  999.0,  999.0,  999.0,   54.0,   40.7,   54.2,   44.8,   54.1,   54.0,   54.0,   53.9,   54.0,   54.0,   53.0,   54.1,   54.1,   54.0,   54.0,   54.1,   54.2,   54.0,   54.1,   54.1,   54.1,   53.9,   54.0,   54.1,   53.9,   54.1,   54.1,   54.1,   54.0,   54.0,   53.9,   54.2,   54.2,  999.0,   54.1,   54.3,   54.0,   53.9,   54.2,   54.1
2005/03/31 05:50,  999.0,  999.0,    4.2,  999.0,    9.5,   10.5,   11.5,   11.9,  999.0,   10.2,    9.9,   10.6,   13.2,  999.0,   18.6,   21.1,  999.0,  999.0,  999.0,  999.0,  999.0,  999.0,  999.0,  999.0,  999.0,   53.1,   53.5,   53.9,   53.4,  999.0,   54.0,   53.8,   53.3,   54.2,   54.0,   54.0,   53.9,   54.2,   54.2,   53.9,   54.0,   54.2,   53.9,   54.0,   54.1,   54.0,   53.7,   54.2,   54.1,   40.0,   40.6,   40.5,   47.3,   40.4,   54.2,   44.9,  999.0,   53.8,   54.0,  999.0,  999.0,  999.0,  999.0
2005/03/31 06:00,  999.0,  999.0,    6.7,    4.0,   10.0,   11.0,   12.2,   12.6,  999.0,   10.0,    9.9,   11.8,   12.8,   17.4,   18.6,   21.0,  999.0,  999.0,  999.0,  999.0,  999.0,  999.0,  999.0,  999.0,  999.0,  999.0,  999.0,   54.3,   53.9,   54.5,   54.1,   54.2,   54.1,   54.2,   54.1,   54.1,   54.2,   54.1,   54.0,   54.2,   54.1,   54.1,   54.3,   54.2,   54.2,   54.0,   54.2,   54.3,   54.0,  999.0,   54.0,   54.3,  999.0,   54.0,   54.2,  999.0,   54.1,   54.0,  999.0,   54.3,   54.0,   54.1,  999.0
2005/03/31 06:10,  999.0,  999.0,    5.2,  999.0,   10.7,   11.7,   11.9,   12.2,   11.1,   10.5,    9.7,   11.7,   12.8,   17.3,   19.7,   21.3,   20.7,  999.0,  999.0,  999.0,  999.0,  999.0,  999.0,  999.0,  999.0,  999.0,   54.1,   54.1,   52.7,   52.7,   54.0,   54.1,  999.0,   54.1,   54.1,   53.0,   53.1,   54.1,   54.0,   54.1,   54.1,   54.1,   52.5,   51.9,   54.1,   51.6,   54.2,   54.1,   54.0,   52.3,   54.2,   54.0,  999.0,   54.2,   54.1,   54.0,   54.0,   54.1,   54.1,  999.0,  999.0,   54.2,  999.0
2005/03/31 06:20,  999.0,    2.7,    7.3,  999.0,   11.2,   12.1,   11.4,   11.7,   11.1,   10.5,    9.7,   11.3,   12.8,   18.6,   20.4,   21.8,  999.0,  999.0,  999.0,  999.0,  999.0,  999.0,  999.0,  999.0,  999.0,  999.0,  999.0,   54.5,  999.0,  999.0,  999.0,   54.2,  999.0,   54.3,   54.1,   54.1,   54.1,   54.1,   54.1,   54.1,   54.2,   54.2,  999.0,   54.4,   54.1,   54.1,   54.2,   54.2,   48.5,   48.5,   54.2,   54.1,   51.6,  999.0,   54.1,   54.0,  999.0,   54.2,   54.3,  999.0,   54.2,   54.2,  999.0
2005/03/31 06:30,  999.0,    3.5,    7.3,    5.2,   11.2,   12.0,   12.3,   11.8,   10.9,   10.6,   10.3,   11.3,   14.9,   18.1,   21.3,   22.1,  999.0,  999.0,  999.0,  999.0,  999.0,  999.0,  999.0,  999.0,  999.0,  999.0,  999.0,  999.0,   43.4,  999.0,  999.0,   53.1,  999.0,   54.0,   54.2,   54.2,   54.1,   54.1,   54.0,   54.1,   53.8,   54.1,   54.1,   53.9,   54.1,   54.0,   54.1,   54.1,   54.1,   54.1,   54.0,   54.0,   54.1,   54.2,   54.1,  999.0,  999.0,   54.1,   53.9,  999.0,  999.0,   53.9,  999.0
2005/03/31 06:40,  999.0,    2.0,    6.5,    6.1,   15.3,   14.1,   12.3,   10.8,   10.6,   11.2,   12.3,   13.4,   14.6,   18.3,   20.9,  999.0,  999.0,  999.0,  999.0,  999.0,  999.0,  999.0,  999.0,  999.0,   54.1,   54.2,   54.0,   54.1,   54.1,  999.0,  999.0,   54.1,  999.0,   54.0,   54.2,   54.0,   54.1,   54.2,   54.2,   54.1,   54.0,   54.2,   54.2,   54.2,   54.2,   54.0,   53.9,   54.2,   54.1,   54.1,   54.1,   54.1,   54.2,  999.0,   54.1,   54.1,   54.1,   54.2,   54.0,  999.0,   54.1,   54.0,   54.1
2005/03/31 06:50,  999.0,    3.0,    5.8,    7.8,   10.0,   11.8,   11.6,   10.1,   10.3,   11.7,   12.8,   13.9,   15.9,   19.0,   21.2,  999.0,  999.0,  999.0,  999.0,  999.0,  999.0,  999.0,  999.0,  999.0,   54.1,   54.1,   54.2,   54.1,   54.0,   54.1,   54.1,   54.2,   54.2,   54.1,   54.1,   54.1,   54.2,   54.1,   54.1,   54.2,   54.2,   54.2,   54.1,   54.2,   54.1,   54.1,   54.1,   54.1,   54.1,   54.0,   54.2,   54.0,   54.0,   54.1,   54.1,   54.1,   54.3,   54.2,   54.2,  999.0,   54.2,   54.1,   54.1
2005/03/31 07:00,  999.0,    5.3,  999.0,    9.8,  999.0,   12.2,   11.5,   10.1,    9.6,   11.3,   12.6,   14.2,   16.1,   19.0,   20.1,  999.0,  999.0,  999.0,  999.0,  999.0,  999.0,  999.0,  999.0,  999.0,   54.1,   54.0,   54.0,   54.1,   54.0,   53.9,   54.2,   54.0,   54.1,   54.1,   54.0,   54.1,   54.0,   54.1,   54.0,   53.9,   53.8,   54.1,   54.1,   54.0,   54.1,   54.1,   54.0,  999.0,   54.1,   54.1,   54.1,   54.1,   54.1,   53.7,   54.1,   54.1,   54.0,   54.1,   54.1,   54.1,   54.1,   54.1,   54.2
2005/03/31 07:10,  999.0,    6.2,   10.0,    9.8,   12.6,   11.3,   11.5,   11.2,   10.9,   11.1,  999.0,   13.8,   16.5,   19.1,   20.0,  999.0,  999.0,  999.0,  999.0,  999.0,   52.8,   53.8,   53.7,   53.7,   53.7,   53.9,   53.8,   54.1,   54.0,   54.0,   53.9,   54.0,   54.0,   54.1,   54.1,   54.0,   53.9,   54.1,   54.0,   54.0,   54.0,   54.1,   54.1,   54.0,   54.1,   54.1,   54.0,   54.0,   54.1,   54.0,   54.0,   54.1,   54.1,   54.0,   54.1,   54.1,   54.1,   54.2,   54.1,   54.1,  999.0,   54.1,   54.2
2005/03/31 07:20,  999.0,    4.1,   10.0,   10.4,   12.9,   11.6,   11.3,   11.4,   11.8,  999.0,   11.7,   13.6,   16.1,   18.6,  999.0,  999.0,  999.0,  999.0,  999.0,  999.0,  999.0,  999.0,   54.3,   54.7,   54.3,   54.2,   54.3,  999.0,   54.1,   54.3,  999.0,  999.0,   54.5,   54.0,   54.0,   54.2,   54.1,  999.0,   54.1,  999.0,   54.2,  999.0,  999.0,  999.0,  999.0,  999.0,   54.4,  999.0,   54.1,  999.0,  999.0,  999.0,  999.0,   54.2,   54.2,   54.2,  999.0,   54.1,   54.2,  999.0,  999.0,  999.0,  999.0
2005/03/31 07:30,  999.0,    5.7,    9.9,   11.6,   12.8,   11.9,   11.3,   11.4,   11.7,   12.0,   12.3,   13.6,   15.7,   17.9,  999.0,  999.0,  999.0,  999.0,  999.0,  999.0,  999.0,  999.0,  999.0,  999.0,  999.0,  999.0,   53.8,   54.5,   54.4,   54.5,   54.0,  999.0,   53.9,   54.2,   54.3,   54.2,  999.0,   54.1,   47.5,   54.0,   45.1,   54.3,   54.1,   45.1,   54.3,   54.2,   54.4,   54.0,  999.0,   54.1,  999.0,   54.2,   54.1,  999.0,   54.0,   54.4,   54.0,   54.0,   54.2,   54.0,   54.0,   54.2,   54.1
2005/03/31 07:40,  999.0,    5.0,    8.9,    9.8,   12.5,   11.8,   12.5,  999.0,  999.0,   12.4,   12.6,   13.7,   16.1,   17.4,  999.0,  999.0,  999.0,  999.0,  999.0,  999.0,  999.0,  999.0,  999.0,  999.0,  999.0,  999.0,  999.0,  999.0,   35.0,  999.0,   27.1,   45.1,   41.3,   31.2,   36.1,   40.9,   40.8,   36.1,   54.2,   54.3,   54.4,   33.8,   40.4,   27.0,   40.6,   37.8,   50.3,  999.0,   54.0,  999.0,  999.0,  999.0,  999.0,  999.0,   54.1,   36.1,  999.0,  999.0,   53.9,   45.2,   54.2,   35.6,   45.2
2005/03/31 07:50,  999.0,    2.9,    6.0,   11.2,   12.9,   12.5,   12.8,   13.9,   13.7,   13.0,   12.9,   14.3,   16.6,  999.0,  999.0,  999.0,  999.0,  999.0,  999.0,  999.0,  999.0,  999.0,  999.0,  999.0,   54.1,   53.8,   54.3,   54.2,   54.4,   54.2,   54.0,   27.2,   27.0,   35.9,   36.0,   54.0,   53.9,   54.0,  999.0,   53.9,   50.3,  999.0,  999.0,  999.0,   27.0,  999.0,  999.0,  999.0,  999.0,   54.2,  999.0,  999.0,  999.0,  999.0,  999.0,   32.6,  999.0,  999.0,   54.2,  999.0,  999.0,  999.0,  999.0
2005/03/31 08:00,  999.0,    2.0,    3.4,   10.3,   12.3,   12.0,   12.5,   13.0,   13.3,   13.1,   12.6,   14.3,   15.8,   16.8,  999.0,  999.0,  999.0,  999.0,  999.0,  999.0,  999.0,  999.0,  999.0,  999.0,  999.0,  999.0,  999.0,  999.0,  999.0,  999.0,   -2.2,    5.7,  999.0,  999.0,  -28.9,  999.0,   21.1,  999.0,  999.0,  999.0,  999.0,  999.0,  999.0,  999.0,  999.0,  999.0,  999.0,  999.0,  999.0,    7.8,  999.0,  999.0,  999.0,  999.0,  999.0,  999.0,  999.0,  999.0,  999.0,  999.0,  999.0,  999.0,  999.0
2005/03/31 08:10,  999.0,  999.0,    3.9,    8.9,   12.4,   12.6,   11.9,   12.1,   12.3,   12.9,   13.0,   14.1,   14.7,  999.0,  999.0,  999.0,  999.0,  999.0,  999.0,  999.0,  999.0,  999.0,  999.0,  999.0,  999.0,  999.0,  999.0,  999.0,  999.0,  999.0,  999.0,   32.0,  999.0,  999.0,  999.0,  999.0,  999.0,  999.0,  999.0,  999.0,  999.0,  999.0,  999.0,  999.0,  999.0,  999.0,  999.0,  999.0,  999.0,  999.0,  999.0,  999.0,  999.0,  999.0,  999.0,  999.0,  999.0,  999.0,  999.0,  999.0,  999.0,  999.0,  999.0
2005/03/31 08:20,  999.0,    2.5,    2.6,    6.2,    8.3,   12.3,   12.2,   12.7,   13.5,   13.5,   13.7,   14.4,   15.8,  999.0,  999.0,  999.0,  999.0,  999.0,  999.0,  999.0,  999.0,  999.0,  999.0,  999.0,  999.0,  999.0,  999.0,  999.0,  999.0,  999.0,  999.0,   -0.1,    0.0,    0.1,   -0.5,  999.0,    0.2,  999.0,   27.1,  999.0,   19.0,   18.2,   -0.1,   32.5,   49.3,  999.0,   -0.1,   17.6,  999.0,    0.1,  999.0,   21.5,  999.0,  999.0,  999.0,  999.0,  999.0,  999.0,   48.7,   27.0,   27.3,  999.0,  999.0
2005/03/31 08:30,  999.0,    1.3,    1.6,    2.5,   12.4,  999.0,   12.8,   12.7,  999.0,   14.1,   14.3,   13.9,   15.9,  999.0,  999.0,  999.0,  999.0,  999.0,  999.0,  999.0,  999.0,  999.0,  999.0,  999.0,  999.0,  999.0,  999.0,  999.0,  999.0,  999.0,  999.0,  999.0,  999.0,  999.0,  999.0,  999.0,  999.0,  999.0,   42.8,  999.0,  999.0,   35.1,   34.7,  999.0,  999.0,   31.0,   43.0,  999.0,  999.0,   33.9,  999.0,  999.0,  999.0,  999.0,  999.0,  999.0,  999.0,  999.0,  999.0,   37.4,  999.0,  999.0,  999.0
2005/03/31 08:40,  999.0,    0.8,    0.8,  999.0,   10.8,   12.9,   12.1,   12.2,  999.0,   14.0,   14.5,   13.9,   15.3,  999.0,  999.0,  999.0,  999.0,  999.0,  999.0,  999.0,  999.0,  999.0,  999.0,  999.0,  999.0,  999.0,  999.0,   26.9,   34.9,  999.0,  999.0,  999.0,  999.0,   34.8,  999.0,  999.0,   31.4,   27.1,  999.0,   32.3,  999.0,  999.0,   28.8,   32.6,  999.0,   27.4,  999.0,   32.4,  999.0,  999.0,  999.0,  999.0,  999.0,  999.0,  999.0,  999.0,  999.0,   32.3,   26.9,  999.0,   26.9,  999.0,   34.6
2005/03/31 08:50,  999.0,  999.0,  999.0,  999.0,    8.7,   11.9,   13.2,   12.8,  999.0,  999.0,   14.2,   11.4,   12.7,  999.0,  999.0,  999.0,  999.0,  999.0,  999.0,  999.0,  999.0,  999.0,  999.0,  999.0,  999.0,  999.0,  999.0,   18.8,  999.0,  999.0,  999.0,  999.0,  999.0,  999.0,  999.0,  999.0,   34.7,   19.4,   18.6,  999.0,  999.0,  999.0,  999.0,  999.0,  999.0,  999.0,  999.0,  999.0,  999.0,  999.0,  999.0,  999.0,  999.0,  999.0,  999.0,  999.0,  999.0,  999.0,  999.0,  999.0,  999.0,  999.0,  999.0
2005/03/31 09:00,  999.0,   -0.0,    0.5,    2.5,    8.7,  999.0,   12.7,   11.8,   13.9,   14.4,   13.8,   13.7,  999.0,  999.0,  999.0,  999.0,  999.0,  999.0,  999.0,  999.0,  999.0,  999.0,  999.0,  999.0,  999.0,  999.0,  999.0,  999.0,  999.0,  999.0,  999.0,  999.0,  999.0,  999.0,  999.0,  999.0,  999.0,  999.0,  999.0,  999.0,  999.0,  999.0,  999.0,  999.0,  999.0,  999.0,  999.0,  999.0,  999.0,  999.0,  999.0,  999.0,  999.0,  999.0,  999.0,  999.0,  999.0,  999.0,  999.0,  999.0,  999.0,  999.0,  999.0
2005/03/31 09:10,  999.0,    0.8,    1.0,    1.0,    7.3,   11.4,   11.7,   12.2,   13.2,   13.4,   13.2,   12.7,   14.2,  999.0,  999.0,  999.0,  999.0,  999.0,  999.0,  999.0,  999.0,  999.0,   23.6,  999.0,  999.0,  999.0,  999.0,  999.0,  999.0,  999.0,  999.0,   27.1,  999.0,  999.0,  999.0,  999.0,  999.0,   27.2,  999.0,  999.0,  999.0,  999.0,  999.0,  999.0,  999.0,  999.0,  999.0,  999.0,  999.0,  999.0,  999.0,  999.0,  999.0,  999.0,  999.0,  999.0,  999.0,  999.0,  999.0,  999.0,  999.0,  999.0,  999.0
2005/03/31 09:20,  999.0,    0.2,   -0.3,  999.0,    7.0,    8.6,  999.0,   11.2,   13.3,   12.9,   12.9,   12.4,   12.9,  999.0,  999.0,  999.0,  999.0,  999.0,  999.0,  999.0,  999.0,  999.0,  999.0,  999.0,  999.0,  999.0,  999.0,  999.0,  999.0,  999.0,  999.0,   21.7,  999.0,  999.0,  999.0,  999.0,  999.0,  999.0,  999.0,  999.0,  999.0,  999.0,  999.0,  999.0,  999.0,  999.0,  999.0,  999.0,  999.0,  999.0,  999.0,  999.0,  999.0,  999.0,  999.0,  999.0,  999.0,  999.0,  999.0,  999.0,  999.0,  999.0,  999.0
2005/03/31 09:30,  999.0,  999.0,  999.0,  999.0,    5.0,    9.5,   11.4,   12.2,   12.6,   12.1,   11.7,   11.1,   11.4,   12.2,  999.0,  999.0,  999.0,  999.0,  999.0,  999.0,  999.0,  999.0,  999.0,  999.0,  999.0,   26.9,   26.7,  999.0,   27.2,   26.9,   27.0,   27.3,   26.8,   26.7,   27.2,   26.9,  999.0,  999.0,  999.0,  999.0,  999.0,  999.0,  999.0,  999.0,  999.0,  999.0,  999.0,  999.0,  999.0,  999.0,  999.0,  999.0,  999.0,  999.0,  999.0,  999.0,  999.0,  999.0,  999.0,  999.0,  999.0,  999.0,  999.0
2005/03/31 09:40,  999.0,    0.1,  999.0,   -0.0,    6.1,    9.3,   10.6,   12.0,   12.2,   11.5,   11.1,   10.3,  999.0,  999.0,  999.0,  999.0,  999.0,  999.0,  999.0,  999.0,  999.0,  999.0,  999.0,  999.0,  999.0,   27.1,    0.3,  999.0,  -13.6,  999.0,  999.0,  999.0,  999.0,  999.0,  999.0,  999.0,   27.0,  999.0,  999.0,  999.0,  999.0,  999.0,  999.0,  999.0,  999.0,  999.0,  999.0,  999.0,  999.0,  999.0,  999.0,  999.0,  999.0,  999.0,  999.0,  999.0,  999.0,  999.0,  999.0,  999.0,  999.0,  999.0,  999.0
2005/03/31 09:50,  999.0,  999.0,  999.0,  999.0,    3.5,    9.5,   12.4,   11.9,   11.2,   11.4,   10.0,  999.0,    9.7,   12.4,  999.0,  999.0,  999.0,  999.0,  999.0,  999.0,  999.0,  999.0,  999.0,  999.0,  999.0,  999.0,   21.2,  999.0,  999.0,  999.0,   27.2,  999.0,   27.0,   27.3,  999.0,  999.0,  999.0,  999.0,  999.0,  999.0,  999.0,  999.0,  999.0,  999.0,  999.0,  999.0,  999.0,  999.0,  999.0,  999.0,  999.0,  999.0,  999.0,  999.0,  999.0,  999.0,  999.0,   26.9,  999.0,  999.0,  999.0,  999.0,  999.0
2005/03/31 10:00,  999.0,  999.0,  999.0,  999.0,    4.4,   11.4,   11.1,   10.9,   12.6,   10.0,  999.0,  999.0,    9.5,   12.2,  999.0,  999.0,  999.0,  999.0,  999.0,  999.0,  999.0,  999.0,  999.0,  999.0,  999.0,  999.0,  999.0,  999.0,  999.0,  999.0,  999.0,  999.0,  999.0,  999.0,  999.0,  999.0,  999.0,  999.0,  999.0,  999.0,  999.0,  999.0,  999.0,  999.0,  999.0,  999.0,  999.0,  999.0,  999.0,  999.0,  999.0,  999.0,  999.0,  999.0,  999.0,  999.0,  999.0,  999.0,  999.0,  999.0,  999.0,  999.0,  999.0
2005/03/31 10:10,  999.0,    4.2,  999.0,  999.0,    9.1,    9.9,   10.9,   11.6,  999.0,  999.0,  999.0,  999.0,    9.6,   12.7,  999.0,  999.0,  999.0,  999.0,  999.0,  999.0,  999.0,  999.0,  999.0,  999.0,  999.0,  999.0,  999.0,  999.0,   21.7,  999.0,  999.0,  999.0,  999.0,  999.0,  999.0,  999.0,  999.0,  999.0,  999.0,  999.0,  999.0,  999.0,  999.0,  999.0,  999.0,  999.0,  999.0,  999.0,  999.0,  999.0,  999.0,  999.0,  999.0,  999.0,  999.0,  999.0,  999.0,  999.0,  999.0,  999.0,  999.0,  999.0,  999.0
2005/03/31 10:20,  999.0,    7.3,    5.4,  999.0,    8.4,    8.9,    9.9,    9.8,  999.0,    2.5,  999.0,  999.0,    8.7,  999.0,  999.0,    0.2,    0.1,  999.0,  999.0,  999.0,  999.0,  999.0,    0.2,  999.0,  999.0,  999.0,  999.0,  999.0,  999.0,  999.0,  999.0,   21.5,  999.0,  999.0,  999.0,  999.0,  999.0,  999.0,  999.0,  999.0,  999.0,  999.0,   29.4,   34.8,   32.3,  999.0,  999.0,   39.6,  999.0,  999.0,  999.0,  999.0,  999.0,  999.0,  999.0,  999.0,  999.0,  999.0,  999.0,  999.0,  999.0,  999.0,  999.0
2005/03/31 10:30,  999.0,    4.5,    5.9,  999.0,    7.3,    7.6,    8.0,   11.1,  999.0,  999.0,    7.4,  999.0,    6.9,  999.0,    8.0,  999.0,  999.0,  999.0,  999.0,  999.0,  999.0,  999.0,   27.0,    8.9,  999.0,  999.0,  999.0,  999.0,  999.0,  999.0,  999.0,  999.0,  999.0,  999.0,  999.0,  999.0,  999.0,  -34.9,  999.0,  999.0,  999.0,  -13.3,    2.8,  999.0,  999.0,   13.2,  999.0,  999.0,   13.5,   13.8,  -13.5,  -18.2,   -7.8,  999.0,  -21.2,  999.0,  999.0,  999.0,  999.0,  999.0,  999.0,   13.5,  999.0
2005/03/31 10:40,  999.0,  999.0,  999.0,  999.0,    6.8,    8.5,    8.2,    9.1,    9.0,  999.0,  999.0,  999.0,  999.0,  999.0,  999.0,  999.0,  999.0,  999.0,  999.0,  999.0,  999.0,  999.0,   26.8,  999.0,  999.0,  999.0,  999.0,  999.0,  999.0,  999.0,  999.0,  999.0,  -16.5,  -15.7,  999.0,  999.0,  -21.2,  999.0,  999.0,  -24.8,  -29.3,  -35.0,  -25.0,   -6.8,  -15.7,  -15.9,  999.0,  -15.8,  -19.6,   -2.2,  999.0,  999.0,  999.0,  -40.6,  -29.3,  999.0,  999.0,  999.0,  999.0,  999.0,  999.0,  999.0,  999.0
2005/03/31 10:50,  999.0,    0.1,    0.7,  999.0,    4.2,    5.9,    8.2,    8.1,    7.3,  999.0,  999.0,    7.1,    7.9,  999.0,  999.0,  999.0,  999.0,    8.5,  999.0,  999.0,  999.0,  999.0,  999.0,  999.0,  999.0,  999.0,  999.0,  999.0,  999.0,  999.0,  999.0,  999.0,  999.0,  999.0,  999.0,   10.8,  999.0,  -29.8,  999.0,   -5.4,  -34.8,  999.0,  -19.4,  999.0,  999.0,  999.0,  -10.7,  999.0,  -24.8,  999.0,   -8.3,  999.0,  999.0,  999.0,  999.0,  999.0,  999.0,  999.0,  999.0,  -27.4,  999.0,   19.3,  -27.7
2005/03/31 11:00,  999.0,    0.1,    0.8,    0.9,    7.3,    7.5,    7.7,    8.7,    9.2,    8.5,  999.0,  999.0,  999.0,    9.5,   11.7,  999.0,  999.0,  999.0,  999.0,  999.0,  999.0,  999.0,  999.0,  999.0,  999.0,  999.0,  999.0,  999.0,  999.0,  999.0,  999.0,  999.0,  999.0,   26.9,   26.5,  999.0,  999.0,  999.0,  999.0,  999.0,  999.0,  999.0,  999.0,  999.0,  999.0,  999.0,  999.0,  999.0,  999.0,  999.0,  999.0,  999.0,  999.0,   34.9,  999.0,  999.0,  999.0,   34.9,  999.0,  999.0,  999.0,  999.0,  999.0
2005/03/31 11:10,  999.0,    0.4,    0.2,  999.0,    2.8,    6.7,    5.6,    6.9,    8.4,    8.8,  999.0,  999.0,    7.7,    9.0,   11.3,  999.0,  999.0,  999.0,  999.0,  999.0,  999.0,  999.0,  999.0,  999.0,  999.0,  999.0,  999.0,  999.0,  999.0,  999.0,  999.0,  999.0,  999.0,  999.0,  999.0,  999.0,  999.0,  999.0,  999.0,  999.0,  999.0,  999.0,  999.0,  999.0,  999.0,  999.0,  999.0,  999.0,  999.0,  999.0,  999.0,  999.0,  999.0,  999.0,  999.0,  999.0,  999.0,  999.0,  999.0,  999.0,  999.0,  999.0,  999.0
2005/03/31 11:20,  999.0,    1.0,    0.5,    1.8,    2.9,    6.1,    6.7,    5.4,    6.9,    8.4,    8.1,    8.4,    8.7,   10.5,   11.6,  999.0,  999.0,  999.0,  999.0,  999.0,  999.0,  999.0,  999.0,  999.0,  999.0,  999.0,  999.0,  999.0,  999.0,  999.0,  999.0,  999.0,  999.0,  999.0,  999.0,  999.0,  999.0,  999.0,  999.0,  999.0,    8.8,  999.0,  999.0,  999.0,    8.9,  999.0,  999.0,  999.0,    0.1,  999.0,  999.0,  999.0,  999.0,  999.0,  999.0,  999.0,  999.0,  999.0,  999.0,  999.0,  999.0,  999.0,  999.0
2005/03/31 11:30,  999.0,    0.3,    0.4,    1.1,    2.6,    0.3,    1.0,    4.9,    4.2,    7.8,   10.2,    9.2,    9.0,   10.8,    6.7,  999.0,  999.0,  999.0,  999.0,    8.1,  999.0,  999.0,  999.0,  999.0,  999.0,  999.0,  999.0,  999.0,  999.0,  999.0,  999.0,  999.0,  999.0,  999.0,  999.0,  999.0,  999.0,  999.0,  999.0,  999.0,  999.0,  999.0,  999.0,  999.0,  999.0,  999.0,  999.0,  999.0,  999.0,  999.0,  999.0,  999.0,  999.0,  999.0,  999.0,  999.0,  999.0,  999.0,  999.0,  999.0,  999.0,  999.0,  999.0
2005/03/31 11:40,  999.0,    0.2,    0.7,    0.0,    2.7,    2.7,    7.3,    7.0,    7.0,    9.2,    7.7,    8.0,    7.8,   13.5,    8.5,  999.0,  999.0,  999.0,  999.0,  999.0,  999.0,  999.0,  999.0,    0.4,  999.0,  999.0,  999.0,   19.9,  999.0,  -14.0,  -18.9,  -23.6,  -28.8,  -19.3,  -10.6,  999.0,  -24.3,  -12.7,   -1.9,  999.0,   -4.8,  -21.9,  -13.7,  -12.4,  999.0,  -24.4,  999.0,  999.0,  -14.6,   -2.9,   -5.8,  999.0,    5.6,  -19.4,  999.0,  999.0,  -10.7,  999.0,  999.0,  999.0,  999.0,  999.0,  -19.2
2005/03/31 11:50,  999.0,    0.7,    0.6,    2.0,    2.6,  999.0,    4.8,    5.8,    7.8,    8.5,    9.3,    7.9,    7.9,    8.4,   11.9,    9.3,  999.0,  999.0,  999.0,  999.0,  999.0,   23.7,  999.0,   28.4,   25.3,   26.7,   34.3,   16.7,   32.2,   40.4,   37.8,   37.8,   40.4,  999.0,   25.5,  999.0,  999.0,  999.0,  999.0,  999.0,   26.9,   27.1,   41.6,   26.7,  999.0,  999.0,  999.0,  999.0,  999.0,  999.0,   27.1,  999.0,  999.0,  999.0,  999.0,  999.0,  999.0,  999.0,  999.0,  999.0,  999.0,  999.0,  999.0
2005/03/31 12:00,  999.0,    0.3,   -0.0,    0.4,    2.9,    4.1,    7.3,    6.6,    7.3,    8.0,    8.5,    8.7,    9.0,    9.4,   13.3,  999.0,  999.0,  999.0,  999.0,  999.0,  999.0,  999.0,  999.0,   21.4,  999.0,  999.0,  999.0,   21.0,  999.0,  999.0,   16.7,  999.0,  999.0,  999.0,  999.0,  999.0,   18.8,   19.1,   24.2,  999.0,  999.0,   48.6,  999.0,  999.0,  999.0,  999.0,   27.0,  999.0,  999.0,  999.0,  999.0,  999.0,  999.0,  999.0,  999.0,  999.0,  999.0,  999.0,  999.0,  999.0,  999.0,  999.0,  999.0
2005/03/31 12:10,  999.0,    0.1,    0.1,  999.0,   -0.1,    2.1,    6.6,    5.6,    5.9,    7.1,    7.9,    8.7,    8.6,   10.2,   12.7,  999.0,  999.0,  999.0,  999.0,  999.0,  999.0,  999.0,  999.0,    9.6,    0.1,  999.0,  999.0,   14.5,   23.3,   23.0,   21.7,   21.8,  999.0,  999.0,  999.0,  999.0,  999.0,  999.0,  999.0,  999.0,  999.0,  999.0,  999.0,  999.0,  999.0,  999.0,  999.0,  999.0,  999.0,  999.0,  999.0,  999.0,  999.0,  999.0,  999.0,  999.0,  999.0,  999.0,  999.0,  999.0,  999.0,  999.0,  999.0
2005/03/31 12:20,  999.0,    0.2,    0.1,   -0.0,    1.8,    4.8,    6.9,    7.8,    7.6,    8.7,    8.8,    9.6,   10.1,    8.8,   11.6,   10.4,  999.0,  999.0,  999.0,   16.5,  999.0,  999.0,  999.0,  999.0,   24.4,  999.0,  999.0,  999.0,  999.0,  999.0,  999.0,  999.0,  999.0,   26.8,  999.0,  999.0,  999.0,   40.6,   48.5,   40.5,   40.6,  999.0,  999.0,  999.0,  999.0,   48.5,  999.0,  999.0,  999.0,  999.0,  999.0,  999.0,  999.0,  999.0,  999.0,  999.0,  999.0,  999.0,  999.0,  999.0,  999.0,  999.0,  999.0
2005/03/31 12:30,  999.0,    0.5,    0.2,    0.9,    1.8,    2.4,    6.0,    4.0,    5.2,    6.6,    6.2,    7.3,    7.9,    7.7,   10.6,  999.0,  999.0,  999.0,  999.0,  999.0,  999.0,  999.0,  999.0,  999.0,  999.0,   24.3,  999.0,  999.0,   25.2,  999.0,  999.0,  999.0,  999.0,  999.0,   18.5,  999.0,  999.0,   19.2,   40.6,   18.8,   21.7,   29.5,  999.0,   18.9,  999.0,  999.0,  999.0,  999.0,  999.0,  999.0,   26.7,  999.0,  999.0,  999.0,  999.0,  999.0,  999.0,  999.0,  999.0,   27.2,   27.2,  999.0,  999.0
2005/03/31 12:40,  999.0,  999.0,  999.0,  999.0,    2.9,    1.6,    7.8,    7.6,    8.2,    8.7,    7.8,    7.5,    8.2,   11.4,   11.1,  999.0,  999.0,  999.0,  999.0,  999.0,  999.0,  999.0,   26.8,  999.0,   12.6,  999.0,  999.0,   26.9,  999.0,   27.1,  999.0,   27.1,  999.0,   26.7,  999.0,   44.5,   34.0,  999.0,  999.0,   41.4,   48.4,  999.0,   21.3,  999.0,   40.6,  999.0,  999.0,   48.2,  999.0,  999.0,  999.0,  999.0,  999.0,  999.0,  999.0,  999.0,  999.0,  999.0,  999.0,  999.0,  999.0,  999.0,  999.0
2005/03/31 12:50,  999.0,    0.5,    0.8,    0.8,    3.2,    4.7,    6.6,    8.0,    7.2,    7.7,    8.8,    9.8,    8.8,   11.5,   14.4,   15.1,  999.0,  999.0,  999.0,  999.0,  999.0,   21.8,  999.0,  999.0,  999.0,  999.0,   18.7,   18.3,  999.0,   18.6,  999.0,  999.0,  999.0,  999.0,  999.0,  999.0,  999.0,  999.0,  999.0,  999.0,  999.0,  999.0,   21.9,  999.0,  999.0,  999.0,   11.0,  999.0,   21.3,  999.0,  999.0,  999.0,  999.0,  999.0,  999.0,  999.0,  999.0,  999.0,  999.0,  999.0,  999.0,  999.0,  999.0
2005/03/31 13:00,  999.0,    0.3,   -0.2,  999.0,  999.0,    2.0,    5.4,    5.6,    6.1,    6.8,    8.5,    7.7,   10.3,   10.4,   10.6,  999.0,  999.0,  999.0,  999.0,  999.0,  999.0,  999.0,  999.0,  999.0,   27.0,   27.1,   27.1,   27.1,   27.1,   27.1,   27.1,   19.4,  999.0,   22.7,   27.1,   24.2,   21.9,   27.1,  999.0,   26.8,   26.7,   22.4,   26.7,   24.1,   20.2,   13.5,  999.0,   13.7,  999.0,   18.1,   26.9,  999.0,  999.0,  999.0,   27.2,  999.0,   20.3,   13.7,   17.8,  999.0,   14.2,  999.0,  999.0
2005/03/31 13:10,  999.0,    0.1,    0.2,    0.5,    0.4,    2.7,    5.5,    5.5,    5.5,    5.8,    6.9,    7.9,    8.2,    9.8,  999.0,   11.8,  999.0,  999.0,  999.0,  999.0,   24.8,  999.0,  999.0,  999.0,   27.1,   24.9,   26.9,  999.0,   27.0,   26.9,   24.4,   27.0,   27.1,   26.9,   26.8,   26.9,   27.0,  999.0,  999.0,   36.1,   37.9,   34.3,   36.0,   27.1,  999.0,  999.0,   26.9,  999.0,  999.0,  999.0,  999.0,   27.1,   27.2,  999.0,  999.0,  999.0,   27.1,  999.0,  999.0,  999.0,  999.0,  999.0,  999.0
2005/03/31 13:20,  999.0,    1.8,    0.1,    2.7,    5.5,    5.7,    5.8,    7.3,    7.3,    6.6,    6.7,    7.3,    7.7,    8.7,    9.0,   10.3,   11.7,   14.9,  999.0,  999.0,  999.0,   15.6,  999.0,  999.0,  999.0,  999.0,  999.0,  999.0,  999.0,  999.0,  999.0,  999.0,  999.0,  999.0,  999.0,  999.0,   18.9,   21.7,   21.7,  999.0,   19.2,   18.1,   19.9,   11.1,  999.0,  999.0,  999.0,  999.0,  999.0,  999.0,  999.0,  999.0,  999.0,  999.0,  999.0,  999.0,  999.0,  999.0,  999.0,  999.0,  999.0,  999.0,  999.0
2005/03/31 13:30,  999.0,    0.9,    2.3,    1.7,    6.0,    6.9,    8.1,    7.5,    6.6,    8.1,    7.5,    7.5,    7.5,    8.7,   10.5,   14.1,   13.9,  999.0,  999.0,  999.0,  999.0,  999.0,  999.0,  999.0,  999.0,  999.0,  999.0,  999.0,   19.1,  999.0,   19.3,  999.0,  999.0,  999.0,  999.0,   27.1,  999.0,   -2.6,   19.3,  999.0,   11.0,   10.7,  999.0,  999.0,   11.1,  999.0,  999.0,   23.7,  999.0,  999.0,   21.5,  999.0,  999.0,  999.0,  999.0,  999.0,  999.0,  999.0,  999.0,  999.0,  999.0,  999.0,  999.0
2005/03/31 13:40,  999.0,    1.1,    0.3,    0.6,    2.5,    2.7,    3.6,    7.0,    5.9,    7.1,    7.3,    7.5,    8.1,    8.6,    8.8,   11.1,   14.5,   17.6,  999.0,  999.0,  999.0,  999.0,  999.0,  999.0,  999.0,  999.0,  999.0,   27.0,  999.0,  999.0,  999.0,  999.0,  999.0,  999.0,  999.0,  999.0,  999.0,  999.0,  999.0,  999.0,  999.0,  999.0,  999.0,  999.0,  999.0,  999.0,  999.0,  999.0,  999.0,  999.0,  999.0,  999.0,  999.0,  999.0,  999.0,  999.0,  999.0,  999.0,  999.0,  999.0,  999.0,  999.0,  999.0
2005/03/31 13:50,  999.0,    0.6,    0.8,    1.3,    2.4,    4.4,    4.4,    3.6,    6.0,    6.2,    6.2,    5.7,    5.2,    6.7,    7.2,    8.1,   11.5,   15.3,   12.0,  999.0,  999.0,  999.0,  999.0,  999.0,  999.0,  999.0,  999.0,  999.0,  999.0,  999.0,  999.0,  999.0,  999.0,  999.0,  999.0,  999.0,  999.0,  999.0,  999.0,  999.0,  999.0,  999.0,  999.0,  999.0,  999.0,  999.0,  999.0,  999.0,  999.0,  999.0,  999.0,  999.0,  999.0,  999.0,  999.0,  999.0,  999.0,  999.0,  999.0,  999.0,  999.0,  999.0,  999.0
2005/03/31 14:00,  999.0,    1.5,    2.5,    2.7,    4.7,    6.5,    7.4,    6.5,    7.0,    5.0,    5.1,    5.6,    6.6,    6.8,    7.1,    7.8,   10.1,   12.9,  999.0,  999.0,  999.0,  999.0,  999.0,  999.0,  999.0,  999.0,  999.0,  999.0,  999.0,  999.0,  999.0,  999.0,  999.0,  999.0,  999.0,   48.6,   48.3,  999.0,  999.0,   48.4,  999.0,   48.8,   48.3,   27.0,  999.0,  999.0,  999.0,   48.8,  999.0,  999.0,  999.0,  999.0,  999.0,  999.0,  999.0,  999.0,  999.0,  999.0,  999.0,   26.9,  999.0,  999.0,  999.0
2005/03/31 14:10,  999.0,    1.0,    0.4,   -0.3,    1.7,    2.1,    4.5,    6.2,    6.9,    6.7,    6.3,    5.7,    6.4,    8.2,    8.9,    9.4,   12.7,   15.0,  999.0,  999.0,  999.0,  999.0,  999.0,  999.0,  999.0,  999.0,  999.0,  999.0,  999.0,  999.0,  999.0,  999.0,  999.0,  999.0,  999.0,  999.0,  999.0,  999.0,  999.0,  999.0,  999.0,  999.0,  999.0,  999.0,  999.0,  999.0,    0.1,   -0.1,   18.1,  999.0,  999.0,   13.8,  999.0,  -13.6,   -6.8,   -8.9,  999.0,    0.0,  999.0,  999.0,  999.0,  999.0,    0.2
2005/03/31 14:20,  999.0,    0.5,    0.4,    0.2,    3.3,    4.1,    4.7,    4.9,    6.2,    5.9,    6.8,    7.6,    8.8,   10.6,   11.5,   12.1,   13.2,   14.4,  999.0,  999.0,  999.0,  999.0,  999.0,  999.0,  999.0,  999.0,  999.0,  999.0,  999.0,  999.0,  999.0,  999.0,  999.0,  999.0,   54.0,  999.0,  999.0,  999.0,  999.0,  999.0,  999.0,  999.0,  999.0,  999.0,  999.0,   54.0,  999.0,   51.1,   40.4,  999.0,  999.0,  999.0,  999.0,   40.6,  999.0,  999.0,  999.0,  999.0,  999.0,  999.0,  999.0,  999.0,  999.0
2005/03/31 14:30,  999.0,    0.7,    0.7,    1.1,    2.7,    4.3,    5.6,    5.7,    5.9,    7.8,    7.1,    8.1,    7.3,    8.9,    9.2,   10.0,   10.9,   14.0,  999.0,  999.0,  999.0,  999.0,  999.0,  999.0,  999.0,  999.0,  999.0,  999.0,  999.0,  999.0,  999.0,  999.0,  999.0,  999.0,   23.4,  999.0,    5.1,    0.1,  999.0,   13.3,  999.0,  999.0,  999.0,  999.0,  999.0,  999.0,  999.0,   48.2,  999.0,  999.0,  999.0,  999.0,  999.0,  999.0,  999.0,  999.0,  999.0,  999.0,  999.0,  999.0,  999.0,  999.0,  999.0
2005/03/31 14:40,  999.0,    2.8,    1.6,    1.7,    5.1,    5.6,    6.6,    7.0,    7.9,    7.5,    7.5,    7.3,    8.6,    8.5,    8.5,    9.0,   10.9,   14.0,   13.2,  999.0,  999.0,  999.0,  999.0,  999.0,  999.0,  999.0,  999.0,  999.0,  999.0,  999.0,   43.8,   43.2,   44.0,  999.0,  999.0,  999.0,  999.0,  999.0,   49.2,   46.1,   40.8,  999.0,   45.1,  999.0,   46.6,  999.0,   45.4,   49.2,  999.0,   54.2,  999.0,  999.0,  999.0,  999.0,  999.0,  999.0,  999.0,  999.0,  999.0,  999.0,  999.0,  999.0,  999.0
2005/03/31 14:50,  999.0,    1.3,    2.7,    2.4,    5.4,    6.5,    6.8,    6.6,    7.1,    5.8,    6.1,    5.6,    5.9,    7.2,    8.7,    9.8,   10.3,   10.2,   10.9,   13.8,  999.0,  999.0,  999.0,  999.0,  999.0,  999.0,  999.0,  999.0,  999.0,  999.0,  999.0,   40.8,  999.0,   48.5,  999.0,  999.0,  999.0,   40.5,  999.0,   32.4,   34.8,  999.0,   48.7,   41.5,  999.0,  999.0,   48.4,  999.0,  999.0,  999.0,  999.0,  999.0,   54.1,  999.0,  999.0,  999.0,  999.0,  999.0,  999.0,   48.2,  999.0,  999.0,  999.0
2005/03/31 15:00,  999.0,    0.5,    0.8,    0.3,    3.8,    6.2,    5.4,    6.8,    7.3,    6.8,    7.2,    7.9,    8.4,    8.7,    9.1,    9.8,   10.0,   11.5,   14.0,  999.0,  999.0,  999.0,  999.0,  999.0,  999.0,  999.0,  999.0,  999.0,  999.0,   50.3,   53.9,   54.0,   54.0,   49.9,   49.8,   48.4,  999.0,   50.5,   50.4,   49.0,   51.2,   50.3,   51.4,   48.5,   54.1,   54.0,   54.1,   54.1,   54.1,   54.1,   54.0,   53.9,   54.0,   54.0,   54.0,   54.1,   54.0,  999.0,  999.0,  999.0,  999.0,   54.2,   51.1
2005/03/31 15:10,  999.0,    0.6,    0.4,    0.9,    4.8,    5.8,    6.7,    5.9,    6.1,    6.7,    7.0,    7.3,    7.0,    6.1,    5.9,    7.2,    8.6,   10.7,   13.2,  999.0,  999.0,  999.0,  999.0,  999.0,  999.0,  999.0,   27.1,   27.0,  999.0,   54.1,   40.7,   45.0,   40.5,   38.0,   40.5,   47.3,   47.9,   40.6,   43.4,   35.9,   37.8,   45.5,   43.3,   43.5,   54.0,  999.0,  999.0,  999.0,  999.0,  999.0,  999.0,  999.0,  999.0,  999.0,  999.0,  999.0,  999.0,  999.0,   24.0,   13.3,   48.6,   26.9,   23.8
2005/03/31 15:20,  999.0,    0.9,    1.1,    1.6,    3.4,    6.0,    7.2,    6.3,    6.5,    5.5,    6.0,    6.9,    6.7,    6.8,    6.3,    7.1,    6.7,    8.1,   10.7,  999.0,  999.0,  999.0,   16.8,   24.4,  999.0,  999.0,  999.0,  999.0,   26.9,   23.2,   36.2,   30.6,   29.2,   36.3,   30.4,   30.2,   19.0,   36.2,   18.9,   32.6,  999.0,   32.4,   39.6,   48.3,  999.0,  999.0,   32.8,  999.0,  999.0,   32.6,  999.0,   39.7,  999.0,  999.0,  999.0,  999.0,   54.1,   45.1,  999.0,  999.0,  999.0,  999.0,   54.1
2005/03/31 15:30,  999.0,    1.6,    1.2,    0.6,    3.9,    6.9,    6.3,    2.6,    1.8,    5.0,    6.3,    4.9,    4.6,    5.6,    6.4,    7.9,    7.9,    8.0,   11.0,   14.0,  999.0,  999.0,  999.0,  999.0,  999.0,  999.0,  999.0,  999.0,  999.0,  999.0,  999.0,  999.0,  999.0,  999.0,  999.0,  999.0,  999.0,  999.0,  999.0,  999.0,  999.0,  999.0,  999.0,  999.0,   36.4,  999.0,  999.0,  999.0,  999.0,  999.0,  999.0,  999.0,  999.0,  999.0,  999.0,  999.0,  999.0,  999.0,  999.0,  999.0,  999.0,  999.0,  999.0
2005/03/31 15:40,  999.0,    1.1,    1.6,    1.5,    3.3,    3.4,    4.5,    3.4,    2.5,    4.7,    4.7,    5.6,    5.2,    4.9,    6.0,    6.6,    7.3,    8.7,   12.0,   14.4,  999.0,  999.0,  999.0,  999.0,  999.0,  999.0,  999.0,  999.0,  999.0,  999.0,  999.0,  999.0,  999.0,  999.0,  999.0,  999.0,  999.0,   46.8,  999.0,  999.0,  999.0,  999.0,  999.0,   46.5,   46.7,  999.0,  999.0,   46.6,   43.2,   46.0,  999.0,  999.0,  999.0,  999.0,  999.0,  999.0,  999.0,  999.0,  999.0,   42.9,  999.0,  999.0,  999.0
2005/03/31 15:50,  999.0,    1.2,    2.8,    4.6,    6.0,    7.0,    6.7,    6.4,    5.2,    6.1,    8.5,    7.5,    6.8,    6.0,    6.2,    6.4,    8.3,    9.1,   12.3,   14.0,  999.0,  999.0,  999.0,  999.0,  999.0,  999.0,  999.0,  999.0,  999.0,   52.3,   26.9,   39.7,   43.2,   52.2,   51.4,   51.2,   54.0,   54.1,   47.9,   54.0,   54.0,   54.0,   54.0,   54.1,   54.1,   54.0,   45.8,   46.8,   47.1,   48.4,   46.6,   50.3,   40.5,   45.9,   48.7,   50.2,   35.4,  999.0,   54.3,  999.0,   34.9,  999.0,  999.0
2005/03/31 16:00,  999.0,  999.0,  999.0,    2.1,    6.0,    6.3,    6.6,    6.8,    7.8,    7.9,    7.2,    7.8,    7.8,    7.9,    8.0,    8.2,    8.7,   10.6,   13.1,   15.1,  999.0,  999.0,  999.0,  999.0,  999.0,  999.0,  999.0,   34.9,   21.6,  999.0,   28.4,   28.6,  999.0,   34.9,  999.0,  999.0,  999.0,  999.0,  999.0,  999.0,  999.0,  999.0,  999.0,  999.0,  999.0,  999.0,   40.8,  999.0,  999.0,  999.0,   40.6,  999.0,  999.0,  999.0,  999.0,  999.0,  999.0,  999.0,  999.0,  999.0,  999.0,  999.0,  999.0
2005/03/31 16:10,  999.0,   -0.0,    0.2,    1.4,    2.8,    3.1,    4.0,    4.3,    4.9,    4.6,    6.1,    4.7,    7.3,    8.3,    7.9,   10.1,   10.3,   11.9,   13.9,  999.0,  999.0,  999.0,  999.0,  999.0,  999.0,  999.0,  999.0,  999.0,  999.0,  999.0,  999.0,  999.0,  999.0,  999.0,  999.0,  999.0,  999.0,  999.0,  999.0,  999.0,  999.0,  999.0,  999.0,   29.1,  999.0,   21.3,  999.0,  999.0,  999.0,  999.0,  999.0,  999.0,  999.0,  999.0,  999.0,  999.0,   12.5,  999.0,  999.0,  999.0,  999.0,  999.0,  999.0
2005/03/31 16:20,  999.0,    0.5,    0.2,    0.4,    1.7,    2.8,    4.4,    6.3,    6.8,    8.3,    8.0,    8.4,    9.1,    9.0,    8.8,    9.7,   11.3,   14.2,   16.8,  999.0,  999.0,  999.0,  999.0,  999.0,  999.0,  999.0,   39.7,  999.0,   54.1,   43.3,   51.3,  999.0,   53.9,   54.0,  999.0,   27.1,  999.0,  999.0,  999.0,  999.0,   53.8,  999.0,  999.0,  999.0,  999.0,  999.0,  999.0,  999.0,  999.0,   48.4,  999.0,   34.9,   48.7,  999.0,   54.0,  999.0,   36.0,   54.0,  999.0,  999.0,   54.1,   54.1,  999.0
2005/03/31 16:30,  999.0,    0.9,    0.6,    1.1,    2.9,    4.5,    6.2,    6.6,    6.4,    7.2,    7.2,    8.6,    9.4,    9.0,    9.1,   10.6,   12.4,   14.1,   15.2,  999.0,  999.0,  999.0,  999.0,  999.0,  999.0,  999.0,   51.2,   50.2,   50.0,   51.3,   51.2,   54.0,   54.0,   54.1,   54.1,   54.0,   50.5,   51.2,   40.5,   43.1,   43.1,   36.1,   45.9,   51.2,   50.4,   54.1,   53.9,   54.0,  999.0,   54.0,   54.0,   50.3,   54.0,   36.0,   43.3,   43.2,   53.9,   40.5,   43.2,  999.0,  999.0,   54.0,   54.2
2005/03/31 16:40,  999.0,    0.0,    0.3,    1.6,    4.3,    5.8,    6.1,    7.0,    6.0,    9.3,    9.1,    8.1,    9.0,    9.8,    9.9,   10.6,   12.7,   14.9,   15.7,  999.0,  999.0,  999.0,  999.0,  999.0,  999.0,  999.0,   54.1,  999.0,  999.0,   32.2,   39.6,   54.2,   54.2,   39.5,   43.3,   54.3,   54.0,   45.1,   45.1,   45.1,   45.1,   45.1,   45.0,   54.2,   54.0,   54.5,   54.1,   54.1,  999.0,   53.9,   54.1,   54.1,   54.3,   36.0,   36.0,   36.0,   24.3,   54.0,   36.2,  999.0,  999.0,   36.0,   36.1
2005/03/31 16:50,  999.0,    0.6,    1.1,    2.6,    5.4,    6.8,    7.3,    7.5,    7.4,    8.3,    9.0,    9.3,    9.0,    9.3,    9.4,   10.6,   11.5,   13.8,   15.6,  999.0,  999.0,  999.0,  999.0,  999.0,  999.0,   50.4,   51.4,   51.4,   51.5,   51.4,   51.8,   54.1,   54.1,   54.0,   53.9,   54.0,   52.9,   52.9,   43.3,   48.6,   48.7,   40.5,   48.6,   54.0,   54.1,   54.1,   54.1,   54.0,   54.1,   54.0,   54.0,   54.0,   54.0,   48.6,   48.7,   40.6,   48.7,   48.6,   47.3,   54.0,   54.0,   54.0,   54.0
2005/03/31 17:00,  999.0,    0.4,    0.4,    0.7,    2.6,    4.8,    7.3,    8.6,    8.8,    8.9,    9.3,    9.7,    9.2,    9.4,   10.1,   10.6,   11.7,   13.6,   15.5,  999.0,  999.0,  999.0,  999.0,  999.0,  999.0,   54.0,   53.9,   54.0,   54.0,   54.1,   54.0,   54.1,   54.1,   54.0,   54.1,   54.1,   54.0,   54.1,   40.5,   40.5,   40.5,   40.5,   40.5,   54.1,   54.1,   54.1,   54.1,   54.1,   54.0,   54.2,   54.1,   54.2,   54.1,   40.5,   54.1,   54.1,   40.5,   54.1,   54.0,   54.1,   54.3,   54.1,   54.2
2005/03/31 17:10,  999.0,    0.4,    0.1,    0.2,    0.6,    2.3,    5.0,    6.6,    7.4,    9.4,   10.8,    9.8,   10.3,   10.5,   10.8,   11.8,   13.7,   15.3,  999.0,  999.0,  999.0,  999.0,  999.0,  999.0,  999.0,  999.0,  999.0,  999.0,  999.0,  999.0,  999.0,  999.0,  999.0,  999.0,  999.0,  999.0,  999.0,  999.0,  999.0,  999.0,  999.0,  999.0,  999.0,  999.0,  999.0,  999.0,  999.0,  999.0,  999.0,  999.0,  999.0,  999.0,  999.0,  999.0,  999.0,  999.0,  999.0,  999.0,  999.0,  999.0,  999.0,  999.0,  999.0
2005/03/31 17:20,  999.0,   -0.1,    0.2,    0.4,    2.6,    3.1,    3.9,    4.8,    6.9,    8.8,    9.3,   10.0,    9.9,   10.0,   10.4,   11.9,   14.1,   15.9,  999.0,  999.0,  999.0,  999.0,  999.0,  999.0,  999.0,   43.8,  999.0,   49.0,  999.0,   36.0,   30.2,   36.0,   36.0,   27.0,  999.0,   26.9,   27.0,   54.1,   45.0,   44.7,   41.6,   54.1,   44.6,   41.4,   45.0,   40.6,   27.0,   27.0,   26.9,   45.1,   27.0,   53.9,   54.0,   44.6,  999.0,   54.1,   40.5,   40.5,  999.0,   45.1,   49.8,  999.0,  999.0
2005/03/31 17:30,  999.0,    0.3,    0.9,    2.4,    4.9,    6.1,    6.9,    7.7,    8.0,    8.9,    8.9,    9.9,   10.3,   10.3,   11.3,   12.7,   14.4,   15.4,  999.0,  999.0,  999.0,  999.0,  999.0,  999.0,  999.0,  999.0,   42.0,   40.4,   28.2,   35.8,   54.0,   47.2,   35.9,   40.5,   27.0,   17.8,   27.0,   45.0,   16.1,   16.1,   33.7,   36.0,   16.1,   27.0,   36.0,   16.1,   13.5,   27.1,    8.9,   21.6,   27.1,   21.6,   18.1,   17.3,   40.5,   27.0,   27.0,   41.8,   29.5,   29.9,  999.0,   27.0,   22.2
2005/03/31 17:40,  999.0,    0.1,    0.8,    2.3,    4.3,    6.0,    7.8,    8.4,    8.0,    8.3,    8.6,    9.5,   10.2,   10.3,   11.4,   13.0,   13.7,   14.2,  999.0,  999.0,  999.0,  999.0,  999.0,  999.0,  999.0,  999.0,   27.2,  999.0,   22.8,   23.1,   27.1,   31.7,  999.0,   15.7,   13.2,   22.5,   13.3,   22.8,   34.9,   16.0,  999.0,   13.2,   19.2,   20.3,   28.3,   23.4,  999.0,   13.2,   17.5,  999.0,   13.2,   26.3,  999.0,   17.5,   13.0,   34.8,   35.1,   13.6,  999.0,  999.0,  999.0,  999.0,  999.0
2005/03/31 17:50,  999.0,    0.2,    0.6,    2.1,    4.2,    5.5,    7.7,    8.9,    8.0,   10.4,   10.8,    9.9,    9.9,   10.5,   11.8,   12.8,   13.8,   14.7,  999.0,  999.0,  999.0,  999.0,  999.0,  999.0,  999.0,   27.2,   54.0,   54.0,   27.0,   34.2,   26.9,   27.1,   39.2,   28.6,   28.8,   28.4,   39.3,   39.2,   28.9,   33.7,   35.1,   36.1,   28.3,   34.2,   35.1,   21.5,   24.3,   40.7,   28.1,   19.9,   29.7,   28.9,   29.7,   19.7,   40.5,   37.8,   19.9,   27.1,   53.8,  999.0,   27.1,   36.2,  999.0
2005/03/31 18:00,  999.0,    0.5,    1.0,    2.5,    4.7,    6.1,    7.8,    8.9,    9.3,   10.1,   10.7,   11.0,   10.7,   11.3,   12.6,   13.6,   14.2,   13.6,  999.0,  999.0,  999.0,  999.0,  999.0,  999.0,  999.0,  999.0,   19.3,  999.0,  999.0,   18.9,   16.2,  999.0,  999.0,  999.0,  999.0,  999.0,  999.0,   13.4,  999.0,   13.4,  999.0,  999.0,   -0.4,  999.0,   13.2,  999.0,  999.0,  999.0,  999.0,  999.0,   -0.3,  999.0,    3.6,    5.6,  999.0,  999.0,  999.0,  999.0,  999.0,  999.0,  999.0,  999.0,  999.0
2005/03/31 18:10,  999.0,    0.8,    0.9,  999.0,    5.4,    6.3,    7.3,    7.3,    8.6,    9.7,   10.1,   10.4,   10.5,   11.1,   12.3,   13.1,   13.3,   14.4,  999.0,  999.0,  999.0,  999.0,  999.0,  999.0,  999.0,  999.0,  999.0,   40.6,   40.7,  999.0,   32.9,   31.0,   36.2,  999.0,   32.6,  999.0,   27.6,   32.5,  999.0,   46.0,   32.6,   32.6,   32.8,   36.2,   32.6,  999.0,   33.0,  999.0,  999.0,  999.0,  999.0,  999.0,  999.0,  999.0,  999.0,  999.0,  999.0,  999.0,  999.0,  999.0,  999.0,  999.0,  999.0
2005/03/31 18:20,  999.0,    0.5,    0.7,  999.0,    5.9,    7.2,    6.9,    7.7,    8.8,    9.1,    9.4,   10.1,   10.7,   11.6,   12.7,   13.5,   13.6,  999.0,  999.0,  999.0,  999.0,  999.0,  999.0,  999.0,  999.0,   31.1,   30.8,   26.8,   21.6,  999.0,   32.8,  999.0,  999.0,  999.0,  999.0,  999.0,  999.0,  999.0,  999.0,  999.0,  999.0,  999.0,  999.0,  999.0,  999.0,  999.0,  999.0,  999.0,   21.3,   18.6,  999.0,   18.0,  999.0,   27.2,  999.0,  999.0,  999.0,   27.9,  999.0,  999.0,  999.0,  999.0,  999.0
2005/03/31 18:30,  999.0,    0.4,    0.6,    1.8,    4.8,    7.7,    8.1,    7.7,    7.8,    8.4,    9.0,   10.3,   10.9,   12.0,   12.6,   13.6,   13.5,  999.0,  999.0,  999.0,  999.0,  999.0,  999.0,  999.0,  999.0,  999.0,  999.0,  999.0,  999.0,  999.0,  999.0,  999.0,  999.0,  999.0,  999.0,  999.0,  999.0,  999.0,  999.0,    8.2,  999.0,  999.0,    7.8,  999.0,  999.0,    8.3,  999.0,  999.0,  999.0,  999.0,  999.0,  999.0,  999.0,   -2.4,  999.0,  999.0,  999.0,  999.0,  999.0,  999.0,  999.0,  999.0,  999.0
2005/03/31 18:40,  999.0,    1.0,    2.0,    3.3,    4.7,    7.8,    9.0,    9.2,    8.9,    9.5,   10.0,   10.2,   11.0,   11.9,   12.2,   13.0,   14.4,  999.0,  999.0,  999.0,  999.0,  999.0,  999.0,  999.0,  999.0,  999.0,   41.3,  999.0,   53.9,  999.0,  999.0,  999.0,   30.8,   21.8,  999.0,   35.8,   36.4,   33.0,   37.7,  999.0,  999.0,  999.0,  999.0,  999.0,  999.0,  999.0,  999.0,  999.0,  999.0,  999.0,  999.0,  999.0,  999.0,   50.3,  999.0,  999.0,  999.0,  999.0,  999.0,  999.0,  999.0,  999.0,  999.0
2005/03/31 18:50,  999.0,    1.8,    2.5,    3.1,    5.3,    7.6,    8.3,    8.7,    9.1,   10.4,   10.1,    9.8,   10.3,   11.1,   11.4,   12.2,   14.7,  999.0,  999.0,  999.0,  999.0,  999.0,  999.0,  999.0,  999.0,   54.3,   53.9,  999.0,  999.0,   50.2,   50.2,   53.9,   54.0,   50.8,   53.9,  999.0,   54.0,   54.0,   44.9,   45.1,   44.6,   27.0,  999.0,   44.5,   54.0,   53.8,   54.0,   54.0,   54.0,   54.0,  999.0,  999.0,  999.0,  999.0,  999.0,  999.0,  999.0,   54.1,   53.9,   54.0,   54.1,   27.1,  999.0
2005/03/31 19:00,  999.0,    2.6,    3.0,    3.7,    6.4,    9.0,    8.4,    9.6,   10.5,   10.3,   10.3,   10.0,    9.9,   10.8,   11.8,   13.0,   15.1,  999.0,  999.0,  999.0,  999.0,  999.0,  999.0,  999.0,   54.8,   54.3,   52.8,   50.7,   54.2,   54.2,   43.3,  999.0,   54.0,   45.0,   51.4,   54.2,   31.5,   31.3,   33.7,   20.2,   25.9,   32.4,   32.4,   25.1,   16.1,   27.0,   26.8,   30.9,   26.9,   27.0,   26.9,   36.1,   51.4,   54.0,   54.0,   50.3,   51.4,   54.1,   32.3,   51.3,  999.0,  999.0,  999.0
2005/03/31 19:10,  999.0,    1.3,    1.7,    2.3,    5.4,    7.9,    9.1,    9.1,   10.4,   10.8,   10.4,   10.2,   10.6,   11.3,   12.7,   12.0,   14.5,  999.0,  999.0,  999.0,  999.0,  999.0,   54.2,  999.0,  999.0,   54.2,   54.1,   54.1,   54.4,   54.2,   53.9,   54.4,   54.1,   54.2,   51.3,   51.5,   46.9,   45.8,   50.8,   50.5,   54.3,   40.8,   50.7,   40.4,   40.4,   50.3,   41.5,   54.2,   48.4,   54.1,   50.4,   44.9,   48.6,  999.0,   54.0,   54.1,   48.9,   48.3,   50.4,   54.2,   50.2,  999.0,  999.0
2005/03/31 19:20,  999.0,    0.8,    1.1,    1.5,    4.5,    6.5,    8.7,    9.1,   10.4,   10.7,   10.3,   10.4,   10.8,   12.1,   14.1,   13.9,  999.0,  999.0,  999.0,  999.0,  999.0,  999.0,  999.0,  999.0,  999.0,  999.0,  999.0,  999.0,  999.0,  999.0,  999.0,  999.0,  999.0,  999.0,  999.0,  999.0,   27.2,   26.9,   27.1,   32.3,   32.5,   32.8,   27.0,   32.6,   34.5,   27.0,   36.2,   21.7,   27.0,   34.3,   34.3,   38.2,   36.3,   54.2,  999.0,   50.8,  999.0,   48.3,  999.0,  999.0,  999.0,  999.0,  999.0
2005/03/31 19:30,  999.0,    0.9,    1.1,    1.6,    3.4,    5.7,    7.7,    9.0,    9.6,   11.1,   10.7,   10.4,   11.1,   12.8,   15.0,   14.3,  999.0,  999.0,  999.0,  999.0,  999.0,  999.0,  999.0,  999.0,  999.0,   54.1,   54.1,   54.4,   54.3,   54.0,   54.3,   54.3,   54.1,   54.0,   54.4,   54.1,   54.2,   38.0,   37.9,   54.1,   54.1,   54.1,   54.0,   54.1,   54.3,   39.5,   54.1,   54.1,   54.1,   43.3,   54.1,   39.6,   43.3,   54.3,   54.1,  999.0,   54.2,   54.1,   54.2,   54.1,   54.1,  999.0,  999.0
2005/03/31 19:40,  999.0,    1.6,    1.9,    1.9,    2.3,    3.3,    4.3,    4.8,    7.0,  999.0,  999.0,  999.0,  999.0,  999.0,  999.0,  999.0,  999.0,  999.0,  999.0,  999.0,  999.0,  999.0,  999.0,  999.0,  999.0,   54.0,   51.3,  999.0,  999.0,   54.2,   52.3,   54.3,   53.8,   54.1,   48.9,   51.4,   54.1,   50.6,   51.4,   51.6,   51.5,   52.4,   50.1,   54.1,   52.5,   51.3,   54.1,   50.1,   48.4,   52.2,   50.2,   51.3,   54.4,   54.1,   54.1,   47.1,  999.0,  999.0,   51.7,   54.2,   54.1,   50.4,  999.0
2005/03/31 19:50,  999.0,    1.3,    1.8,    2.5,    2.7,    2.3,    1.9,    0.5,   -0.5,   -2.7,   -3.6,   -4.2,  999.0,   -5.6,   -6.3,   -5.9,   -4.5,  999.0,  999.0,  999.0,  999.0,  999.0,  999.0,  999.0,  999.0,  999.0,  999.0,  999.0,  999.0,  999.0,  -14.6,  -13.7,   27.0,   10.7,   10.9,   -0.1,  999.0,  999.0,  999.0,  -13.9,  -14.7,  -40.8,   -9.1,  -13.4,   13.5,   13.6,   13.4,  -18.1,   -9.2,   -0.1,   -0.1,  -13.7,  -21.8,  999.0,  999.0,  -22.0,  999.0,    8.1,  -27.3,  999.0,  999.0,  -13.6,  -40.5
2005/03/31 20:00,  999.0,    0.9,    2.1,    2.7,    2.6,    2.2,    2.2,    0.9,   -1.5,   -2.8,   -3.7,   -4.7,  999.0,   -6.0,   -6.2,   -5.7,   -4.3,  999.0,  999.0,  999.0,  999.0,  999.0,  999.0,  999.0,  999.0,  999.0,  -33.3,  999.0,  999.0,  999.0,  -38.3,  -19.9,    5.0,  -19.2,  -16.5,  999.0,  -38.6,  999.0,  999.0,  999.0,  -29.8,  -27.4,  999.0,  999.0,  999.0,  999.0,  999.0,  999.0,  999.0,  999.0,  999.0,  999.0,  999.0,  999.0,  999.0,  999.0,  999.0,  999.0,  999.0,  999.0,  999.0,  -30.2,  999.0
2005/03/31 20:10,  999.0,    0.2,    2.3,    3.1,    2.9,    2.7,    1.8,    0.4,   -2.2,   -3.2,   -4.2,   -4.7,   -6.4,   -6.7,   -6.3,   -5.7,  999.0,  999.0,  999.0,  999.0,  999.0,  999.0,  999.0,  999.0,  999.0,  999.0,  -33.2,  -32.9,  999.0,  999.0,  -32.4,  -38.3,  999.0,  999.0,  999.0,  999.0,  999.0,  999.0,  999.0,  999.0,  999.0,  999.0,  999.0,  999.0,  -26.8,  -24.9,  999.0,  999.0,  -19.8,  999.0,  999.0,  -27.1,  999.0,  -32.4,  999.0,  -24.5,  999.0,    8.1,   -8.4,  -31.9,  999.0,   -0.3,  999.0
2005/03/31 20:20,  999.0,    0.6,    2.9,    3.2,    2.9,    2.0,    2.0,    0.0,   -2.5,   -3.6,   -4.5,  999.0,   -6.8,   -7.1,   -6.9,   -6.0,   -5.2,  999.0,  999.0,  999.0,  999.0,  999.0,  999.0,  999.0,  999.0,  999.0,  999.0,  999.0,  999.0,  999.0,    5.0,  999.0,  999.0,  -27.6,  999.0,  999.0,  999.0,  -43.7,  999.0,  999.0,  999.0,  999.0,  999.0,  -21.8,    5.5,  -13.6,  999.0,   12.4,   30.7,  999.0,    5.0,    3.1,  -24.7,  999.0,  999.0,   16.4,   -1.9,   -0.1,   27.3,   16.6,  999.0,  999.0,    0.6
2005/03/31 20:30,  999.0,    1.0,    3.3,    3.1,    2.3,    1.9,    1.1,  999.0,   -2.2,   -3.2,   -4.4,   -5.5,   -6.5,   -6.5,   -6.7,   -6.5,   -5.4,  999.0,  999.0,  999.0,  999.0,  999.0,  999.0,  999.0,  999.0,  999.0,  999.0,   -0.1,  999.0,  999.0,  -10.8,  999.0,  999.0,  999.0,  -10.7,  999.0,   -5.3,  -10.9,  -21.3,  -23.6,   -6.6,  -23.3,  999.0,  -10.8,    2.7,    0.2,    0.1,  -27.2,  -19.3,  -27.1,  999.0,   -7.0,  -24.2,  999.0,   -0.1,   -7.3,  999.0,  -10.7,   -0.3,  -18.2,    0.2,   -0.1,   -0.0
2005/03/31 20:40,  999.0,    0.5,    3.0,    3.0,    2.6,    1.4,    0.4,   -0.4,   -2.1,   -3.6,   -5.0,   -5.8,   -6.5,   -7.1,   -7.3,   -7.0,  999.0,  999.0,  999.0,  999.0,  999.0,  999.0,  999.0,  -33.5,  999.0,  999.0,  999.0,  -38.2,  -15.7,   -5.7,  -16.3,  -13.4,  999.0,   -0.2,  -24.8,  -30.8,   -2.4,  999.0,  -22.9,    2.0,  999.0,  -13.5,   -7.2,   13.4,   -3.7,  -21.7,   -7.2,  -51.8,  -54.3,  -10.9,  999.0,  999.0,  -15.2,  -11.0,    5.4,  -49.2,  -12.6,    5.3,   14.4,  -30.0,  -21.8,  -12.5,  -14.7
2005/03/31 20:50,  999.0,    0.4,    2.8,    2.7,    2.1,    1.3,    0.3,   -0.2,   -2.0,   -3.8,   -4.7,   -6.2,   -6.6,   -7.0,   -7.1,  999.0,  999.0,  999.0,  999.0,  999.0,  999.0,  999.0,  999.0,  999.0,  999.0,  999.0,  999.0,  999.0,  999.0,  999.0,   -8.0,   -0.3,  -18.0,  999.0,   13.5,  999.0,  999.0,  -16.4,    0.1,   -5.1,  999.0,   -9.1,   27.3,  -13.2,    1.7,   -8.9,  -13.5,  -11.9,   -4.2,  999.0,  999.0,  -13.7,  -25.5,   13.7,  999.0,    1.7,   13.8,  999.0,  -13.3,  999.0,   -0.0,  -13.7,   13.4
2005/03/31 21:00,  999.0,    0.3,    2.8,    2.9,    2.2,    1.1,    0.0,   -0.3,   -2.0,   -4.0,   -4.8,   -6.2,   -6.7,   -6.9,   -6.9,   -6.3,  999.0,  999.0,  999.0,  999.0,  999.0,  999.0,  999.0,  999.0,  999.0,  999.0,  999.0,  999.0,  999.0,  -14.6,  -10.8,  -26.9,  -12.1,  -13.6,  -19.9,  -16.6,  -10.9,   -3.2,   -0.2,    2.6,   -7.7,  -26.8,  -18.3,   -6.8,   -8.0,   -6.8,   -1.6,  -10.9,  -27.0,   -0.1,   -5.5,  -13.4,  -13.6,   -6.9,   -7.0,   -8.9,  -18.2,   -4.4,   -0.2,  -18.2,   -0.1,    1.6,    0.2
2005/03/31 21:10,  999.0,   -0.3,    2.9,    2.4,    1.7,    0.5,   -0.1,   -0.3,   -2.1,   -4.3,   -5.1,   -6.2,   -7.0,   -7.1,   -6.6,   -6.1,  999.0,  999.0,  999.0,  999.0,  999.0,  999.0,  999.0,  999.0,  999.0,  999.0,  999.0,  -22.8,    0.3,   -0.1,  -14.4,  -23.0,  -18.3,  -25.5,  -43.3,  -14.2,  -27.0,  -16.5,  999.0,  -27.3,  -14.5,  -48.8,  -37.8,  999.0,  -43.4,  -46.8,  -37.8,  -16.3,  999.0,  999.0,   -2.6,  -32.4,  -47.0,  -16.2,  999.0,  999.0,  -29.5,  -31.0,  999.0,  -28.8,  -23.7,  999.0,   13.7
2005/03/31 21:20,  999.0,    0.4,    2.6,    2.6,    1.8,    0.6,   -0.1,   -0.7,   -2.1,   -4.7,   -5.8,   -6.5,   -7.2,   -7.2,   -6.9,  999.0,  999.0,  999.0,  999.0,  999.0,  999.0,  999.0,  999.0,  999.0,  999.0,  999.0,  -24.4,  999.0,  999.0,  -19.4,  -24.4,  -24.2,  999.0,  -24.5,  -24.4,  -13.5,  -12.1,    2.2,  -16.4,   -0.1,    2.1,    3.1,  -13.6,   13.6,    1.1,   -0.0,    1.2,    5.3,    1.3,    0.1,    0.1,    0.9,  -27.2,   20.3,   20.2,    3.5,  -18.0,    5.5,  -16.2,    0.0,  -18.0,   28.4,    2.5
2005/03/31 21:30,  999.0,    0.2,    1.7,    1.9,    1.6,    1.2,    0.3,   -0.9,   -2.4,   -5.2,   -6.0,   -6.9,   -7.1,   -7.7,   -7.2,   -5.9,  999.0,  999.0,  999.0,  999.0,  999.0,  999.0,  999.0,  999.0,  999.0,  999.0,  999.0,  999.0,  999.0,  -22.0,  -23.4,  -27.4,  999.0,  -41.6,  999.0,    0.0,   -6.7,   -6.7,    0.5,    0.0,   -6.7,  -13.5,   -6.7,   -6.8,   -5.3,  -12.1,   -0.1,   -6.7,    0.0,  -18.0,   -6.8,   -0.0,   -0.2,   -6.8,    6.9,  -10.7,   -9.2,   -6.7,  -13.6,  -19.1,    6.8,   18.0,  -10.6
2005/03/31 21:40,  999.0,   -0.9,    1.6,    1.6,    1.6,    1.3,    0.6,    0.0,   -2.7,   -5.5,   -6.4,   -7.2,   -7.7,   -7.9,   -7.6,   -6.0,  999.0,  999.0,  999.0,  999.0,  999.0,  999.0,  -15.9,  999.0,  999.0,  999.0,  -35.6,  999.0,  999.0,  -46.0,  -41.6,  -46.2,  999.0,  -49.0,  -38.1,  999.0,  -23.8,  -29.3,  -34.5,  -32.8,  -33.6,  -31.2,  -31.1,  -20.1,  -28.5,  -29.9,  -18.0,  -28.6,  -29.7,  -22.6,  -23.0,  -32.6,  -23.0,  -27.1,  -36.6,  -30.8,  -23.7,  -30.0,  -36.4,  999.0,  -10.8,   -0.3,  -16.1
2005/03/31 21:50,  999.0,   -0.8,    1.6,    1.9,    1.6,    1.2,    0.4,   -0.6,   -3.3,   -5.7,   -6.7,   -7.5,   -7.7,   -7.8,   -7.0,   -5.7,  999.0,  999.0,  999.0,  999.0,  999.0,  999.0,  999.0,  999.0,  999.0,  999.0,  -50.9,  999.0,  -54.3,  -51.5,  -51.4,  999.0,  -51.6,  -51.5,  999.0,  -50.7,  -52.3,  -52.7,  -54.2,  -54.1,  -54.1,  -54.3,  -54.2,  -48.7,  -54.1,  -54.1,  -48.8,  -54.2,  -54.3,  -52.8,  -47.4,  -54.2,  -52.4,  -54.1,  -54.2,  -40.9,  -46.9,  -45.9,  -53.9,  -54.3,  -50.5,  999.0,  -36.1
2005/03/31 22:00,  999.0,   -0.6,    1.7,    1.7,    1.5,    1.3,    0.3,   -0.5,   -2.8,   -5.5,   -6.8,   -7.6,   -8.0,   -7.9,   -7.2,   -5.5,  999.0,  999.0,  999.0,  999.0,  -43.3,  999.0,  999.0,  999.0,  999.0,  999.0,  -54.1,  -50.5,  -54.1,  -43.4,  -43.4,  -44.6,  -40.6,  -44.7,  -44.7,  -36.1,  -34.3,  -29.2,  -44.7,  -39.5,  -32.5,  -34.7,  -35.7,  -32.6,  -36.7,  -30.5,  -35.7,  -25.4,  -44.8,  -31.2,  -34.4,  -34.9,  -30.5,  -25.2,  -52.5,  -44.8,  -24.5,  -38.1,  -40.7,  -16.5,  -27.6,  -45.4,  -50.6
2005/03/31 22:10,  999.0,   -2.1,    1.9,    2.1,    1.7,    0.6,    0.6,   -0.8,   -3.2,   -5.7,   -6.6,   -7.3,   -8.2,   -7.7,   -7.4,  999.0,  999.0,  999.0,  999.0,  999.0,  999.0,  999.0,  999.0,  999.0,  999.0,  999.0,  999.0,  999.0,  999.0,  -27.2,  999.0,  999.0,  999.0,  999.0,  999.0,  -27.1,   -5.3,    4.3,    6.5,   -3.5,   -6.7,    0.1,  -13.6,  -10.2,    0.1,  -20.1,  -13.5,  -13.8,    0.1,   -8.9,  -18.0,  -10.7,  -17.9,  -17.5,    3.7,   -5.3,  -17.9,   -6.9,    0.0,   -5.5,   -9.0,    9.1,   -9.2
2005/03/31 22:20,  999.0,   -0.3,    1.6,    1.7,    1.3,    0.7,    0.2,   -0.6,   -2.3,   -5.5,   -6.9,   -7.6,   -8.0,   -7.7,   -6.8,  999.0,  999.0,  999.0,  999.0,  999.0,  999.0,  999.0,  999.0,  999.0,  999.0,  999.0,  999.0,  999.0,  999.0,  999.0,  999.0,  999.0,  999.0,  999.0,  999.0,  999.0,   -0.0,    0.2,    0.3,    7.2,    7.2,   -1.8,  999.0,    8.8,    7.1,  999.0,  999.0,  -11.1,    7.4,  -24.5,   -2.1,    5.5,  999.0,   -8.5,    8.3,  999.0,  -19.0,   -5.7,  999.0,   -5.4,  -14.3,    7.8,  999.0
2005/03/31 22:30,  999.0,    0.5,    1.3,    1.3,    1.2,    0.8,    0.0,   -0.3,   -2.7,   -5.8,   -7.0,   -8.0,   -8.5,   -8.3,  999.0,  999.0,  999.0,  999.0,  999.0,  999.0,  999.0,  999.0,  999.0,    0.2,  999.0,    0.9,    0.1,  -21.4,    0.1,    0.0,    0.1,  999.0,  999.0,    0.0,    9.0,    0.2,   10.9,   20.5,   27.1,   20.3,   19.6,    6.9,    6.9,   -0.0,    8.8,    0.2,   -4.1,    9.1,    6.8,    6.7,    0.2,   18.1,    1.9,   -0.2,   25.3,    6.8,   13.6,   32.4,    9.3,    9.2,   -9.0,   27.4,    6.8
2005/03/31 22:40,  999.0,    0.3,    0.3,    1.7,    1.1,    0.7,    0.5,   -1.1,   -2.7,   -6.1,   -7.1,   -8.1,   -8.6,   -7.9,   -6.9,  999.0,  999.0,  999.0,  999.0,  999.0,  999.0,  999.0,  999.0,  999.0,  999.0,  999.0,   -5.4,    6.0,  999.0,   23.5,   16.4,   22.1,   29.8,   16.5,    8.1,   30.0,   40.8,   23.6,   41.2,   41.0,   16.2,    8.2,   40.8,   40.8,  999.0,  999.0,   27.2,   27.3,   27.7,   41.0,   21.6,   14.8,   13.8,   23.7,  999.0,  999.0,   40.8,   23.6,   16.2,   36.9,   40.8,   10.9,   41.1
2005/03/31 22:50,  999.0,    1.2,    1.1,    0.8,    0.6,   -0.5,   -1.2,   -1.5,   -2.8,   -4.5,   -6.8,   -7.7,   -7.5,   -6.9,   -5.7,  999.0,  999.0,  999.0,  999.0,  999.0,  999.0,  999.0,  999.0,  999.0,  999.0,  -41.0,  999.0,  999.0,  999.0,  -19.7,  -27.1,  -27.1,  -19.8,  -27.0,  -18.1,  -14.8,  -28.9,  -45.1,  -36.4,  -28.7,  -36.1,  -37.8,  -18.4,  -45.1,  -20.1,  -14.8,  -14.6,  -17.9,  -14.8,  -14.8,  -45.1,  -45.2,  -15.0,  -32.4,  -54.2,  -45.1,  -27.0,  999.0,  -25.9,  -42.2,  999.0,  -38.2,  -33.8
2005/03/31 23:00,  999.0,    0.8,    1.6,    1.4,    0.4,   -0.2,   -0.2,   -1.5,   -2.9,   -5.2,   -6.4,   -7.3,   -7.8,   -6.8,   -6.1,  999.0,  999.0,  999.0,  999.0,  999.0,  999.0,  999.0,  999.0,  999.0,  999.0,   -5.1,   -4.8,  999.0,  999.0,    0.1,    0.1,    0.1,  999.0,    0.1,  999.0,  -19.9,  -14.9,  -13.5,  -16.5,  -14.8,  -13.6,  -13.6,  -18.4,  -13.7,  -18.1,  -13.7,  -13.6,   -0.1,  -13.7,  -13.6,  -13.6,  -13.7,  -13.6,    0.1,  -18.3,  -13.5,  -13.7,   -0.1,  -13.6,  -13.6,   -0.1,  -18.2,  -18.2
2005/03/31 23:10,  999.0,    1.5,    1.4,    1.1,    0.3,    0.3,   -0.3,   -1.3,   -3.4,   -4.7,   -6.1,   -7.6,   -7.8,   -6.9,  999.0,  999.0,  999.0,  999.0,  999.0,  999.0,  999.0,  999.0,  -43.3,  999.0,  999.0,  -29.6,  -35.0,  -42.8,  -54.0,  -35.6,  -34.5,  -30.1,  -35.1,  -34.4,  -34.4,  -35.1,  -30.2,  -36.4,  -42.0,  -30.2,  -40.5,  -40.6,  -34.6,  -34.5,  -36.2,  -40.6,  -29.2,  -33.8,  -34.8,  -34.7,  -29.3,  -23.9,  -33.9,  -23.6,  -35.9,  -27.1,  -23.8,  -30.7,  -27.0,  -29.2,  -29.3,  -21.9,  -29.3
2005/03/31 23:20,  999.0,    0.0,    0.6,    0.0,    0.5,    0.1,   -0.7,   -1.3,   -2.6,   -1.7,   -4.6,   -6.3,   -7.4,   -6.7,  999.0,  999.0,  999.0,  999.0,  999.0,  999.0,  999.0,  999.0,  999.0,  999.0,  999.0,  999.0,  999.0,  999.0,  999.0,  -54.7,  -40.4,  -45.4,  -45.2,  -45.3,  -40.7,  -47.5,  -45.1,  -38.1,  -45.2,  -45.1,  -41.9,  -47.6,  -45.2,  -45.0,  -36.6,  -54.1,  -45.1,  -36.5,  -54.1,  -54.2,  -54.0,  -40.8,  -40.7,  -40.7,  -40.6,  -45.2,  -45.2,  999.0,  999.0,  -54.2,  -45.1,  -45.3,  -54.1
2005/03/31 23:30,  999.0,   -0.5,    0.9,    0.8,    0.1,    0.3,   -0.1,   -0.6,   -2.4,   -2.4,   -3.7,   -5.7,   -7.0,   -5.8,  999.0,  999.0,  999.0,  999.0,   -5.3,   -5.5,  999.0,  999.0,  999.0,  999.0,  999.0,  999.0,  999.0,  999.0,  999.0,   -0.0,   -6.7,  -27.0,   -8.2,   -3.1,  -13.7,   -8.9,   -8.6,   -6.8,   -2.5,   -9.3,   -7.4,   -0.1,   -6.8,   -6.8,    0.1,   -8.8,    0.1,   -5.4,   -8.9,    0.1,   -5.5,    0.0,   -6.7,   -5.4,    0.0,   -0.1,   -5.4,   -5.4,    0.0,   -6.8,   -5.4,   -0.1,   -6.8
2005/03/31 23:40,  999.0,   -0.4,    0.8,    0.9,    0.7,    0.9,    1.1,    1.0,   -0.0,   -1.1,   -2.2,   -3.4,   -4.7,   -5.2,  999.0,  999.0,  999.0,  999.0,  999.0,  999.0,  999.0,  999.0,  999.0,  999.0,  999.0,  999.0,  -32.7,   -0.1,  999.0,  -10.8,   -9.2,  999.0,   -3.6,   -9.3,  999.0,  -15.0,  -28.3,  -18.0,  -18.1,  -23.0,  -16.1,  999.0,  -16.3,  -28.4,  -12.2,  -25.3,  -20.1,  -16.3,  999.0,   -9.4,  -18.0,  -13.5,   -0.2,  -16.2,  -18.1,  -27.2,  -15.0,  -18.0,  -16.3,  -16.5,   -9.4,  -13.3,  -22.9
2005/03/31 23:50,  999.0,    0.2,    1.3,    1.2,    1.4,    1.1,    1.9,    2.7,    2.2,    0.2,   -1.1,   -2.3,   -4.0,   -5.2,  999.0,   -3.8,  999.0,  999.0,  999.0,  999.0,  999.0,  999.0,  999.0,  999.0,  999.0,  -54.3,  -54.4,  -54.6,  -54.6,  -54.6,  -36.5,  -54.1,  999.0,  -54.8,  -54.4,  -54.3,  -54.4,  -36.3,  -36.1,  -54.2,  -54.3,  -36.0,  -54.4,  -54.2,  -54.3,  -36.1,  -45.2,  -33.8,  -33.9,  -54.2,  -45.3,  -33.9,  -54.2,  -54.2,  -36.1,  -36.2,  -54.2,  -36.0,  -36.2,  -54.4,  -54.3,  -36.0,  -36.3
